Observation data for Happy on 11/08/2019      Previous  Date       Current Mesonet Observations  Soil Data  Daily Summary Page  Observations in Plain Language
KHA2 080600Z 16002KT 01/M02 A3045 RMK A01 T00071024  RH  080%=      5-min Rain = 0
KHA2 080601Z 16002KT 01/M03 A3045 RMK A01 T00071026  RH  079%=      5-min Rain = 0
KHA2 080602Z 17002KT 01/M03 A3045 RMK A01 T00071026  RH  078%=      5-min Rain = 0
KHA2 080603Z 17002KT 01/M03 A3045 RMK A01 T00071027  RH  078%=      5-min Rain = 0
KHA2 080604Z 16002KT 01/M03 A3045 RMK A01 T00071027  RH  078%=      5-min Rain = 0
KHA2 080605Z 16002KT 01/M03 A3045 RMK A01 T00071027  RH  078%=      5-min Rain = 0
KHA2 080606Z 17002KT 01/M03 A3045 RMK A01 T00071026  RH  078%=      5-min Rain = 0
KHA2 080607Z 18002KT 01/M02 A3045 RMK A01 T00081023  RH  080%=      5-min Rain = 0
KHA2 080608Z 18003KT 01/M02 A3045 RMK A01 T00081021  RH  081%=      5-min Rain = 0
KHA2 080609Z 18003KT 01/M02 A3045 RMK A01 T00081022  RH  081%=      5-min Rain = 0
KHA2 080610Z 18003KT 01/M02 A3045 RMK A01 T00081024  RH  079%=      5-min Rain = 0
KHA2 080611Z 18003KT 01/M03 A3045 RMK A01 T00071027  RH  078%=      5-min Rain = 0
KHA2 080612Z 17002KT 01/M03 A3045 RMK A01 T00081025  RH  079%=      5-min Rain = 0
KHA2 080613Z 17002KT 01/M02 A3045 RMK A01 T00071023  RH  080%=      5-min Rain = 0
KHA2 080614Z 17002KT 01/M02 A3045 RMK A01 T00071023  RH  080%=      5-min Rain = 0
KHA2 080615Z 17003KT 01/M02 A3045 RMK A01 T00071024  RH  079%=      5-min Rain = 0
KHA2 080616Z 17003KT 01/M03 A3045 RMK A01 T00071025  RH  079%=      5-min Rain = 0
KHA2 080617Z 17002KT 01/M02 A3045 RMK A01 T00081024  RH  079%=      5-min Rain = 0
KHA2 080618Z 17002KT 01/M02 A3045 RMK A01 T00071023  RH  080%=      5-min Rain = 0
KHA2 080619Z 18002KT 01/M02 A3045 RMK A01 T00071023  RH  080%=      5-min Rain = 0
KHA2 080620Z 18003KT 01/M03 A3045 RMK A01 T00081025  RH  079%=      5-min Rain = 0
KHA2 080621Z 18003KT 01/M03 A3045 RMK A01 T00081025  RH  079%=      5-min Rain = 0
KHA2 080622Z 18002KT 01/M03 A3045 RMK A01 T00071026  RH  078%=      5-min Rain = 0
KHA2 080623Z 18002KT 01/M03 A3045 RMK A01 T00071027  RH  078%=      5-min Rain = 0
KHA2 080624Z 20002KT 01/M03 A3045 RMK A01 T00071027  RH  078%=      5-min Rain = 0
KHA2 080625Z 20002KT 01/M03 A3045 RMK A01 T00071028  RH  077%=      5-min Rain = 0
KHA2 080626Z 23002KT 01/M03 A3045 RMK A01 T00071029  RH  077%=      5-min Rain = 0
KHA2 080627Z 23002KT 01/M03 A3045 RMK A01 T00071030  RH  076%=      5-min Rain = 0
KHA2 080628Z 25002KT 01/M03 A3045 RMK A01 T00081028  RH  077%=      5-min Rain = 0
KHA2 080629Z 25002KT 01/M03 A3045 RMK A01 T00081027  RH  077%=      5-min Rain = 0
KHA2 080630Z 25003KT 01/M02 A3045 RMK A01 T00081024  RH  079%=      5-min Rain = 0
KHA2 080631Z 25002KT 01/M02 A3045 RMK A01 T00091023  RH  079%=      5-min Rain = 0
KHA2 080632Z 25002KT 01/M03 A3045 RMK A01 T00081025  RH  078%=      5-min Rain = 0
KHA2 080633Z 25002KT 01/M03 A3045 RMK A01 T00081027  RH  077%=      5-min Rain = 0
KHA2 080634Z 25002KT 01/M03 A3045 RMK A01 T00081027  RH  077%=      5-min Rain = 0
KHA2 080635Z 25003KT 01/M03 A3045 RMK A01 T00081026  RH  078%=      5-min Rain = 0
KHA2 080636Z 25003KT 01/M02 A3045 RMK A01 T00091024  RH  079%=      5-min Rain = 0
KHA2 080637Z 26003KT 01/M02 A3045 RMK A01 T00091024  RH  079%=      5-min Rain = 0
KHA2 080638Z 26003KT 01/M02 A3045 RMK A01 T00091024  RH  078%=      5-min Rain = 0
KHA2 080639Z 26003KT 01/M03 A3045 RMK A01 T00091025  RH  078%=      5-min Rain = 0
KHA2 080640Z 27003KT 01/M02 A3045 RMK A01 T00091023  RH  079%=      5-min Rain = 0
KHA2 080641Z 27002KT 01/M02 A3045 RMK A01 T00091024  RH  079%=      5-min Rain = 0
KHA2 080642Z 28002KT 01/M02 A3045 RMK A01 T00091023  RH  079%=      5-min Rain = 0
KHA2 080643Z 28002KT 01/M02 A3045 RMK A01 T00091022  RH  080%=      5-min Rain = 0
KHA2 080644Z 28002KT 01/M02 A3045 RMK A01 T00091022  RH  080%=      5-min Rain = 0
KHA2 080645Z 27002KT 01/M03 A3045 RMK A01 T00091025  RH  078%=      5-min Rain = 0
KHA2 080646Z 27002KT 01/M03 A3045 RMK A01 T00091025  RH  078%=      5-min Rain = 0
KHA2 080647Z 26002KT 01/M03 A3045 RMK A01 T00091026  RH  078%=      5-min Rain = 0
KHA2 080648Z 26002KT 01/M03 A3045 RMK A01 T00091027  RH  077%=      5-min Rain = 0
KHA2 080649Z 26003KT 01/M03 A3045 RMK A01 T00091027  RH  077%=      5-min Rain = 0
KHA2 080650Z 26002KT 01/M03 A3045 RMK A01 T00091025  RH  078%=      5-min Rain = 0
KHA2 080651Z 26002KT 01/M03 A3045 RMK A01 T00091025  RH  078%=      5-min Rain = 0
KHA2 080652Z 27003KT 01/M03 A3045 RMK A01 T00091025  RH  078%=      5-min Rain = 0
KHA2 080653Z 27002KT 01/M03 A3045 RMK A01 T00091026  RH  078%=      5-min Rain = 0
KHA2 080654Z 26003KT 01/M03 A3045 RMK A01 T00091026  RH  078%=      5-min Rain = 0
KHA2 080655Z 26003KT 01/M03 A3045 RMK A01 T00091027  RH  077%=      5-min Rain = 0
KHA2 080656Z 25003KT 01/M03 A3045 RMK A01 T00081029  RH  076%=      5-min Rain = 0
KHA2 080657Z 26003KT 01/M03 A3045 RMK A01 T00081030  RH  076%=      5-min Rain = 0
KHA2 080658Z 26003KT 01/M03 A3045 RMK A01 T00081027  RH  077%=      5-min Rain = 0
KHA2 080659Z 26004KT 01/M03 A3045 RMK A01 T00091025  RH  078%=      5-min Rain = 0
KHA2 080700Z 26003KT 01/M03 A3045 RMK A01 T00081025  RH  078%=      5-min Rain = 0
KHA2 080701Z 26003KT 01/M03 A3045 RMK A01 T00081025  RH  078%=      5-min Rain = 0
KHA2 080702Z 26003KT 01/M02 A3045 RMK A01 T00091022  RH  080%=      5-min Rain = 0
KHA2 080703Z 26003KT 01/M02 A3045 RMK A01 T00091020  RH  081%=      5-min Rain = 0
KHA2 080704Z 26003KT 01/M02 A3045 RMK A01 T00091019  RH  081%=      5-min Rain = 0
KHA2 080705Z 26003KT 01/M02 A3045 RMK A01 T00091023  RH  080%=      5-min Rain = 0
KHA2 080706Z 26003KT 01/M02 A3045 RMK A01 T00091022  RH  080%=      5-min Rain = 0
KHA2 080707Z 26003KT 01/M02 A3045 RMK A01 T00091024  RH  079%=      5-min Rain = 0
KHA2 080708Z 27004KT 01/M03 A3045 RMK A01 T00081025  RH  078%=      5-min Rain = 0
KHA2 080709Z 27004KT 01/M03 A3045 RMK A01 T00081025  RH  078%=      5-min Rain = 0
KHA2 080710Z 27004KT 01/M03 A3045 RMK A01 T00081025  RH  079%=      5-min Rain = 0
KHA2 080711Z 26003KT 01/M03 A3045 RMK A01 T00081026  RH  078%=      5-min Rain = 0
KHA2 080712Z 28003KT 01/M03 A3045 RMK A01 T00081026  RH  078%=      5-min Rain = 0
KHA2 080713Z 27003KT 01/M03 A3045 RMK A01 T00081026  RH  078%=      5-min Rain = 0
KHA2 080714Z 27003KT 01/M03 A3045 RMK A01 T00091025  RH  078%=      5-min Rain = 0
KHA2 080715Z 28004KT 01/M02 A3045 RMK A01 T00091023  RH  079%=      5-min Rain = 0
KHA2 080716Z 28004KT 01/M02 A3045 RMK A01 T00091023  RH  079%=      5-min Rain = 0
KHA2 080717Z 28004KT 01/M02 A3045 RMK A01 T00091022  RH  080%=      5-min Rain = 0
KHA2 080718Z 28004KT 01/M02 A3044 RMK A01 T00091021  RH  081%=      5-min Rain = 0
KHA2 080719Z 27003KT 01/M02 A3044 RMK A01 T00091022  RH  080%=      5-min Rain = 0
KHA2 080720Z 27003KT 01/M02 A3044 RMK A01 T00091022  RH  080%=      5-min Rain = 0
KHA2 080721Z 26003KT 01/M02 A3044 RMK A01 T00091021  RH  081%=      5-min Rain = 0
KHA2 080722Z 25003KT 01/M02 A3044 RMK A01 T00091021  RH  081%=      5-min Rain = 0
KHA2 080723Z 25003KT 01/M02 A3044 RMK A01 T00091022  RH  080%=      5-min Rain = 0
KHA2 080724Z 25003KT 01/M02 A3044 RMK A01 T00091022  RH  080%=      5-min Rain = 0
KHA2 080725Z 26003KT 01/M02 A3044 RMK A01 T00091023  RH  079%=      5-min Rain = 0
KHA2 080726Z 26003KT 01/M02 A3044 RMK A01 T00091023  RH  079%=      5-min Rain = 0
KHA2 080727Z 26003KT 01/M02 A3044 RMK A01 T00091023  RH  079%=      5-min Rain = 0
KHA2 080728Z 25003KT 01/M02 A3044 RMK A01 T00091023  RH  079%=      5-min Rain = 0
KHA2 080729Z 26003KT 01/M02 A3044 RMK A01 T00091023  RH  080%=      5-min Rain = 0
KHA2 080730Z 25003KT 01/M02 A3044 RMK A01 T00091020  RH  081%=      5-min Rain = 0
KHA2 080731Z 26004KT 01/M02 A3044 RMK A01 T00091020  RH  081%=      5-min Rain = 0
KHA2 080732Z 25004KT 01/M02 A3044 RMK A01 T00091021  RH  081%=      5-min Rain = 0
KHA2 080733Z 26003KT 01/M02 A3044 RMK A01 T00091021  RH  080%=      5-min Rain = 0
KHA2 080734Z 27003KT 01/M02 A3044 RMK A01 T00091020  RH  081%=      5-min Rain = 0
KHA2 080735Z 26003KT 01/M02 A3044 RMK A01 T00091018  RH  082%=      5-min Rain = 0
KHA2 080736Z 27004KT 01/M02 A3044 RMK A01 T00091018  RH  082%=      5-min Rain = 0
KHA2 080737Z 27003KT 01/M02 A3044 RMK A01 T00091020  RH  081%=      5-min Rain = 0
KHA2 080738Z 27004KT 01/M02 A3044 RMK A01 T00091020  RH  081%=      5-min Rain = 0
KHA2 080739Z 27004KT 01/M02 A3044 RMK A01 T00091020  RH  081%=      5-min Rain = 0
KHA2 080740Z 27003KT 01/M02 A3044 RMK A01 T00091020  RH  081%=      5-min Rain = 0
KHA2 080741Z 27003KT 01/M02 A3044 RMK A01 T00091021  RH  081%=      5-min Rain = 0
KHA2 080742Z 27002KT 01/M02 A3044 RMK A01 T00091021  RH  080%=      5-min Rain = 0
KHA2 080743Z 26002KT 01/M02 A3044 RMK A01 T00091020  RH  081%=      5-min Rain = 0
KHA2 080744Z 24002KT 01/M02 A3043 RMK A01 T00091020  RH  081%=      5-min Rain = 0
KHA2 080745Z 24003KT 01/M02 A3043 RMK A01 T00091022  RH  080%=      5-min Rain = 0
KHA2 080746Z 24003KT 01/M02 A3043 RMK A01 T00091024  RH  078%=      5-min Rain = 0
KHA2 080747Z 25003KT 01/M02 A3043 RMK A01 T00091024  RH  079%=      5-min Rain = 0
KHA2 080748Z 25003KT 01/M02 A3043 RMK A01 T00091022  RH  080%=      5-min Rain = 0
KHA2 080749Z 25003KT 01/M02 A3043 RMK A01 T00091024  RH  079%=      5-min Rain = 0
KHA2 080750Z 25003KT 01/M02 A3043 RMK A01 T00091024  RH  079%=      5-min Rain = 0
KHA2 080751Z 24002KT 01/M02 A3043 RMK A01 T00091023  RH  079%=      5-min Rain = 0
KHA2 080752Z 24003KT 01/M02 A3043 RMK A01 T00091023  RH  079%=      5-min Rain = 0
KHA2 080753Z 24003KT 01/M02 A3043 RMK A01 T00091022  RH  080%=      5-min Rain = 0
KHA2 080754Z 24003KT 01/M02 A3043 RMK A01 T00091022  RH  080%=      5-min Rain = 0
KHA2 080755Z 24003KT 01/M02 A3043 RMK A01 T00091023  RH  079%=      5-min Rain = 0
KHA2 080756Z 25003KT 01/M02 A3043 RMK A01 T00091024  RH  078%=      5-min Rain = 0
KHA2 080757Z 24003KT 01/M02 A3043 RMK A01 T00091023  RH  079%=      5-min Rain = 0
KHA2 080758Z 23003KT 01/M02 A3043 RMK A01 T00091022  RH  080%=      5-min Rain = 0
KHA2 080759Z 23003KT 01/M02 A3042 RMK A01 T00091020  RH  081%=      5-min Rain = 0
KHA2 080800Z 23003KT 01/M02 A3042 RMK A01 T00091020  RH  081%=      5-min Rain = 0
KHA2 080801Z 23003KT 01/M02 A3042 RMK A01 T00091021  RH  080%=      5-min Rain = 0
KHA2 080802Z 22003KT 01/M02 A3042 RMK A01 T00091022  RH  080%=      5-min Rain = 0
KHA2 080803Z 23003KT 01/M02 A3042 RMK A01 T00091022  RH  079%=      5-min Rain = 0
KHA2 080804Z 23004KT 01/M02 A3042 RMK A01 T00091022  RH  079%=      5-min Rain = 0
KHA2 080805Z 23003KT 01/M02 A3042 RMK A01 T00091023  RH  079%=      5-min Rain = 0
KHA2 080806Z 23003KT 01/M02 A3042 RMK A01 T00091022  RH  080%=      5-min Rain = 0
KHA2 080807Z 24003KT 01/M02 A3042 RMK A01 T00091020  RH  081%=      5-min Rain = 0
KHA2 080808Z 24003KT 01/M02 A3042 RMK A01 T00091020  RH  081%=      5-min Rain = 0
KHA2 080809Z 25003KT 01/M02 A3042 RMK A01 T00091021  RH  080%=      5-min Rain = 0
KHA2 080810Z 25003KT 01/M02 A3042 RMK A01 T00091021  RH  080%=      5-min Rain = 0
KHA2 080811Z 25003KT 01/M02 A3042 RMK A01 T00091023  RH  079%=      5-min Rain = 0
KHA2 080812Z 25003KT 01/M02 A3042 RMK A01 T00101022  RH  080%=      5-min Rain = 0
KHA2 080813Z 26004KT 01/M02 A3042 RMK A01 T00101021  RH  080%=      5-min Rain = 0
KHA2 080814Z 26004KT 01/M02 A3042 RMK A01 T00101021  RH  080%=      5-min Rain = 0
KHA2 080815Z 25003KT 01/M02 A3042 RMK A01 T00101022  RH  080%=      5-min Rain = 0
KHA2 080816Z 25003KT 01/M02 A3042 RMK A01 T00101022  RH  079%=      5-min Rain = 0
KHA2 080817Z 25003KT 01/M02 A3042 RMK A01 T00101020  RH  081%=      5-min Rain = 0
KHA2 080818Z 24004KT 01/M02 A3042 RMK A01 T00101019  RH  081%=      5-min Rain = 0
KHA2 080819Z 24004KT 01/M02 A3042 RMK A01 T00101020  RH  081%=      5-min Rain = 0
KHA2 080820Z 25003KT 01/M02 A3042 RMK A01 T00101020  RH  080%=      5-min Rain = 0
KHA2 080821Z 24004KT 01/M02 A3042 RMK A01 T00101019  RH  081%=      5-min Rain = 0
KHA2 080822Z 25004KT 01/M02 A3042 RMK A01 T00101020  RH  081%=      5-min Rain = 0
KHA2 080823Z 25004KT 01/M02 A3041 RMK A01 T00091020  RH  081%=      5-min Rain = 0
KHA2 080824Z 26004KT 01/M02 A3041 RMK A01 T00101020  RH  081%=      5-min Rain = 0
KHA2 080825Z 26004KT 01/M02 A3041 RMK A01 T00101020  RH  081%=      5-min Rain = 0
KHA2 080826Z 27004KT 01/M02 A3042 RMK A01 T00101020  RH  081%=      5-min Rain = 0
KHA2 080827Z 26004KT 01/M02 A3042 RMK A01 T00101019  RH  081%=      5-min Rain = 0
KHA2 080828Z 27005KT 01/M02 A3042 RMK A01 T00101019  RH  081%=      5-min Rain = 0
KHA2 080829Z 27004KT 01/M02 A3041 RMK A01 T00101020  RH  081%=      5-min Rain = 0
KHA2 080830Z 27004KT 01/M02 A3041 RMK A01 T00101021  RH  080%=      5-min Rain = 0
KHA2 080831Z 27004KT 01/M02 A3041 RMK A01 T00101020  RH  080%=      5-min Rain = 0
KHA2 080832Z 28004KT 01/M02 A3041 RMK A01 T00101020  RH  081%=      5-min Rain = 0
KHA2 080833Z 28004KT 01/M02 A3041 RMK A01 T00101019  RH  081%=      5-min Rain = 0
KHA2 080834Z 28004KT 01/M02 A3041 RMK A01 T00101019  RH  081%=      5-min Rain = 0
KHA2 080835Z 28005KT 01/M02 A3041 RMK A01 T00101018  RH  082%=      5-min Rain = 0
KHA2 080836Z 28005KT 01/M02 A3041 RMK A01 T00101018  RH  082%=      5-min Rain = 0
KHA2 080837Z 28004KT 01/M02 A3041 RMK A01 T00101018  RH  082%=      5-min Rain = 0
KHA2 080838Z 27003KT 01/M02 A3041 RMK A01 T00101018  RH  082%=      5-min Rain = 0
KHA2 080839Z 27004KT 01/M02 A3041 RMK A01 T00101017  RH  082%=      5-min Rain = 0
KHA2 080840Z 27005KT 01/M02 A3041 RMK A01 T00101019  RH  080%=      5-min Rain = 0
KHA2 080841Z 27005KT 01/M02 A3041 RMK A01 T00101020  RH  080%=      5-min Rain = 0
KHA2 080842Z 27004KT 01/M02 A3041 RMK A01 T00101020  RH  081%=      5-min Rain = 0
KHA2 080843Z 27005KT 01/M02 A3041 RMK A01 T00101019  RH  081%=      5-min Rain = 0
KHA2 080844Z 28004KT 01/M02 A3041 RMK A01 T00101019  RH  081%=      5-min Rain = 0
KHA2 080845Z 28004KT 01/M02 A3041 RMK A01 T00101017  RH  082%=      5-min Rain = 0
KHA2 080846Z 28004KT 01/M02 A3041 RMK A01 T00111016  RH  082%=      5-min Rain = 0
KHA2 080847Z 28004KT 01/M02 A3041 RMK A01 T00101016  RH  082%=      5-min Rain = 0
KHA2 080848Z 29004KT 01/M02 A3041 RMK A01 T00111016  RH  082%=      5-min Rain = 0
KHA2 080849Z 29004KT 01/M02 A3041 RMK A01 T00111017  RH  082%=      5-min Rain = 0
KHA2 080850Z 28005KT 01/M02 A3041 RMK A01 T00111018  RH  081%=      5-min Rain = 0
KHA2 080851Z 28005KT 01/M02 A3041 RMK A01 T00111019  RH  080%=      5-min Rain = 0
KHA2 080852Z 27004KT 01/M02 A3042 RMK A01 T00101021  RH  079%=      5-min Rain = 0
KHA2 080853Z 28005KT 01/M02 A3042 RMK A01 T00101020  RH  080%=      5-min Rain = 0
KHA2 080854Z 28005KT 01/M02 A3042 RMK A01 T00101021  RH  080%=      5-min Rain = 0
KHA2 080855Z 28005KT 01/M02 A3042 RMK A01 T00101020  RH  080%=      5-min Rain = 0
KHA2 080856Z 27005KT 01/M02 A3042 RMK A01 T00111020  RH  080%=      5-min Rain = 0
KHA2 080857Z 27005KT 01/M02 A3042 RMK A01 T00111021  RH  080%=      5-min Rain = 0
KHA2 080858Z 28005KT 01/M02 A3042 RMK A01 T00111020  RH  080%=      5-min Rain = 0
KHA2 080859Z 28005KT 01/M02 A3042 RMK A01 T00111021  RH  080%=      5-min Rain = 0
KHA2 080900Z 28004KT 01/M02 A3042 RMK A01 T00111020  RH  080%=      5-min Rain = 0
KHA2 080901Z 27004KT 01/M02 A3042 RMK A01 T00111020  RH  080%=      5-min Rain = 0
KHA2 080902Z 27004KT 01/M02 A3042 RMK A01 T00111019  RH  080%=      5-min Rain = 0
KHA2 080903Z 28004KT 01/M02 A3042 RMK A01 T00111018  RH  081%=      5-min Rain = 0
KHA2 080904Z 28004KT 01/M02 A3042 RMK A01 T00111018  RH  081%=      5-min Rain = 0
KHA2 080905Z 29005KT 01/M02 A3042 RMK A01 T00111018  RH  081%=      5-min Rain = 0
KHA2 080906Z 29006KT 01/M02 A3042 RMK A01 T00111017  RH  081%=      5-min Rain = 0
KHA2 080907Z 28006KT 01/M02 A3042 RMK A01 T00121016  RH  082%=      5-min Rain = 0
KHA2 080908Z 28006KT 01/M02 A3042 RMK A01 T00121016  RH  082%=      5-min Rain = 0
KHA2 080909Z 28006KT 01/M02 A3042 RMK A01 T00121016  RH  082%=      5-min Rain = 0
KHA2 080910Z 28005KT 01/M02 A3042 RMK A01 T00121016  RH  082%=      5-min Rain = 0
KHA2 080911Z 27004KT 01/M02 A3042 RMK A01 T00121016  RH  082%=      5-min Rain = 0
KHA2 080912Z 28003KT 01/M02 A3042 RMK A01 T00111015  RH  083%=      5-min Rain = 0
KHA2 080913Z 27004KT 01/M01 A3042 RMK A01 T00121014  RH  083%=      5-min Rain = 0
KHA2 080914Z 27004KT 01/M01 A3042 RMK A01 T00121014  RH  083%=      5-min Rain = 0
KHA2 080915Z 27006KT 01/M01 A3042 RMK A01 T00121013  RH  083%=      5-min Rain = 0
KHA2 080916Z 27005KT 01/M02 A3042 RMK A01 T00111015  RH  083%=      5-min Rain = 0
KHA2 080917Z 26006KT 01/M02 A3042 RMK A01 T00111015  RH  083%=      5-min Rain = 0
KHA2 080918Z 26005KT 01/M01 A3042 RMK A01 T00121014  RH  083%=      5-min Rain = 0
KHA2 080919Z 26005KT 01/M01 A3041 RMK A01 T00121014  RH  083%=      5-min Rain = 0
KHA2 080920Z 27005KT 01/M01 A3041 RMK A01 T00121014  RH  083%=      5-min Rain = 0
KHA2 080921Z 26006KT 01/M01 A3041 RMK A01 T00121014  RH  083%=      5-min Rain = 0
KHA2 080922Z 25005KT 01/M01 A3041 RMK A01 T00121014  RH  083%=      5-min Rain = 0
KHA2 080923Z 25006KT 01/M01 A3041 RMK A01 T00121013  RH  084%=      5-min Rain = 0
KHA2 080924Z 25006KT 01/M01 A3041 RMK A01 T00121012  RH  084%=      5-min Rain = 0
KHA2 080925Z 25006KT 01/M01 A3041 RMK A01 T00121013  RH  084%=      5-min Rain = 0
KHA2 080926Z 25006KT 01/M01 A3041 RMK A01 T00121012  RH  084%=      5-min Rain = 0
KHA2 080927Z 24005KT 01/M01 A3041 RMK A01 T00111012  RH  084%=      5-min Rain = 0
KHA2 080928Z 24006KT 01/M01 A3041 RMK A01 T00111011  RH  085%=      5-min Rain = 0
KHA2 080929Z 25008KT 01/M01 A3041 RMK A01 T00121011  RH  085%=      5-min Rain = 0
KHA2 080930Z 25007KT 01/M01 A3041 RMK A01 T00121012  RH  085%=      5-min Rain = 0
KHA2 080931Z 25008KT 01/M01 A3041 RMK A01 T00121011  RH  085%=      5-min Rain = 0
KHA2 080932Z 25008KT 01/M01 A3041 RMK A01 T00121010  RH  085%=      5-min Rain = 0
KHA2 080933Z 25008KT 01/M01 A3041 RMK A01 T00121009  RH  086%=      5-min Rain = 0
KHA2 080934Z 25008KT 01/M01 A3041 RMK A01 T00111009  RH  087%=      5-min Rain = 0
KHA2 080935Z 25007KT 01/M01 A3041 RMK A01 T00111008  RH  087%=      5-min Rain = 0
KHA2 080936Z 25006KT 01/M01 A3041 RMK A01 T00111008  RH  087%=      5-min Rain = 0
KHA2 080937Z 26006KT 01/M01 A3041 RMK A01 T00101008  RH  088%=      5-min Rain = 0
KHA2 080938Z 27006KT 01/M01 A3041 RMK A01 T00101007  RH  088%=      5-min Rain = 0
KHA2 080939Z 26005KT 01/M01 A3041 RMK A01 T00101006  RH  089%=      5-min Rain = 0
KHA2 080940Z 25006KT 01/M01 A3041 RMK A01 T00101005  RH  089%=      5-min Rain = 0
KHA2 080941Z 25006KT 01/M01 A3041 RMK A01 T00101005  RH  090%=      5-min Rain = 0
KHA2 080942Z 25007KT 01/M01 A3041 RMK A01 T00101005  RH  090%=      5-min Rain = 0
KHA2 080943Z 24006KT 01/M01 A3041 RMK A01 T00101005  RH  090%=      5-min Rain = 0
KHA2 080944Z 25006KT 01/M00 A3041 RMK A01 T00101004  RH  090%=      5-min Rain = 0
KHA2 080945Z 24006KT 01/M00 A3041 RMK A01 T00101004  RH  091%=      5-min Rain = 0
KHA2 080946Z 25006KT 01/M00 A3041 RMK A01 T00091004  RH  091%=      5-min Rain = 0
KHA2 080947Z 25006KT 01/M00 A3041 RMK A01 T00091003  RH  091%=      5-min Rain = 0
KHA2 080948Z 25006KT 01/M00 A3041 RMK A01 T00091003  RH  092%=      5-min Rain = 0
KHA2 080949Z 25006KT 01/M00 A304 RMK A01 T00091002  RH  092%=      5-min Rain = 0
KHA2 080950Z 24006KT 01/M00 A304 RMK A01 T00091002  RH  092%=      5-min Rain = 0
KHA2 080951Z 24006KT 01/M00 A304 RMK A01 T00091002  RH  092%=      5-min Rain = 0
KHA2 080952Z 24006KT 01/M00 A304 RMK A01 T00091002  RH  092%=      5-min Rain = 0
KHA2 080953Z 24006KT 01/M00 A304 RMK A01 T00091001  RH  093%=      5-min Rain = 0
KHA2 080954Z 25006KT 01/M00 A304 RMK A01 T00091001  RH  093%=      5-min Rain = 0
KHA2 080955Z 25006KT 01/M00 A304 RMK A01 T00091001  RH  093%=      5-min Rain = 0
KHA2 080956Z 25006KT 01/M00 A304 RMK A01 T00091001  RH  093%=      5-min Rain = 0
KHA2 080957Z 25006KT 01/00 A304 RMK A01 T000900-0  RH  093%=      5-min Rain = 0
KHA2 080958Z 25007KT 01/M00 A304 RMK A01 T00091001  RH  093%=      5-min Rain = 0
KHA2 080959Z 25005KT 01/M00 A304 RMK A01 T00091001  RH  093%=      5-min Rain = 0
KHA2 081000Z 25006KT 01/M00 A304 RMK A01 T00091001  RH  093%=      5-min Rain = 0
KHA2 081001Z 26005KT 01/00 A304 RMK A01 T000900-0  RH  094%=      5-min Rain = 0
KHA2 081002Z 26007KT 01/00 A304 RMK A01 T000900-0  RH  094%=      5-min Rain = 0
KHA2 081003Z 25007KT 01/00 A304 RMK A01 T000900-0  RH  094%=      5-min Rain = 0
KHA2 081004Z 25007KT 01/00 A304 RMK A01 T000900-0  RH  094%=      5-min Rain = 0
KHA2 081005Z 25006KT 01/M00 A304 RMK A01 T00091001  RH  094%=      5-min Rain = 0
KHA2 081006Z 25005KT 01/M00 A304 RMK A01 T00081001  RH  094%=      5-min Rain = 0
KHA2 081007Z 25005KT 01/00 A3041 RMK A01 T000900-0  RH  094%=      5-min Rain = 0
KHA2 081008Z 25005KT 01/00 A3041 RMK A01 T00090000  RH  094%=      5-min Rain = 0
KHA2 081009Z 25006KT 01/00 A3041 RMK A01 T00090000  RH  094%=      5-min Rain = 0
KHA2 081010Z 25006KT 01/00 A3041 RMK A01 T00090001  RH  094%=      5-min Rain = 0
KHA2 081011Z 25006KT 01/00 A3041 RMK A01 T00090001  RH  094%=      5-min Rain = 0
KHA2 081012Z 25007KT 01/00 A3041 RMK A01 T00090000  RH  094%=      5-min Rain = 0
KHA2 081013Z 25007KT 01/00 A3041 RMK A01 T000900-0  RH  094%=      5-min Rain = 0
KHA2 081014Z 24006KT 01/M00 A3041 RMK A01 T00081001  RH  094%=      5-min Rain = 0
KHA2 081015Z 25005KT 01/M00 A304 RMK A01 T00081001  RH  094%=      5-min Rain = 0
KHA2 081016Z 25004KT 01/00 A304 RMK A01 T00090000  RH  094%=      5-min Rain = 0
KHA2 081017Z 24005KT 01/00 A304 RMK A01 T00090001  RH  094%=      5-min Rain = 0
KHA2 081018Z 24005KT 01/00 A304 RMK A01 T00090001  RH  094%=      5-min Rain = 0
KHA2 081019Z 24004KT 01/00 A304 RMK A01 T00090001  RH  095%=      5-min Rain = 0
KHA2 081020Z 24005KT 01/00 A304 RMK A01 T00090002  RH  095%=      5-min Rain = 0
KHA2 081021Z 24004KT 01/00 A304 RMK A01 T00090002  RH  095%=      5-min Rain = 0
KHA2 081022Z 24005KT 01/00 A304 RMK A01 T00090003  RH  095%=      5-min Rain = 0
KHA2 081023Z 24006KT 01/00 A304 RMK A01 T00090003  RH  096%=      5-min Rain = 0
KHA2 081024Z 24005KT 01/00 A304 RMK A01 T00090003  RH  096%=      5-min Rain = 0
KHA2 081025Z 24005KT 01/00 A304 RMK A01 T00090003  RH  096%=      5-min Rain = 0
KHA2 081026Z 24004KT 01/00 A304 RMK A01 T00090004  RH  096%=      5-min Rain = 0
KHA2 081027Z 25005KT 01/00 A304 RMK A01 T00090004  RH  096%=      5-min Rain = 0
KHA2 081028Z 25005KT 01/00 A304 RMK A01 T00090004  RH  096%=      5-min Rain = 0
KHA2 081029Z 24005KT 01/00 A304 RMK A01 T00090004  RH  096%=      5-min Rain = 0
KHA2 081030Z 25004KT 01/00 A304 RMK A01 T00090004  RH  097%=      5-min Rain = 0
KHA2 081031Z 24005KT 01/00 A304 RMK A01 T00090004  RH  097%=      5-min Rain = 0
KHA2 081032Z 24005KT 01/00 A304 RMK A01 T00090004  RH  097%=      5-min Rain = 0
KHA2 081033Z 24005KT 01/00 A304 RMK A01 T00090004  RH  097%=      5-min Rain = 0
KHA2 081034Z 25005KT 01/00 A304 RMK A01 T00080004  RH  097%=      5-min Rain = 0
KHA2 081035Z 25005KT 01/00 A304 RMK A01 T00090004  RH  097%=      5-min Rain = 0
KHA2 081036Z 24004KT 01/00 A304 RMK A01 T00080004  RH  097%=      5-min Rain = 0
KHA2 081037Z 25004KT 01/00 A304 RMK A01 T00080004  RH  097%=      5-min Rain = 0
KHA2 081038Z 25005KT 01/00 A304 RMK A01 T00080004  RH  097%=      5-min Rain = 0
KHA2 081039Z 25004KT 01/00 A304 RMK A01 T00080004  RH  097%=      5-min Rain = 0
KHA2 081040Z 26004KT 01/01 A304 RMK A01 T00080005  RH  097%=      5-min Rain = 0
KHA2 081041Z 25004KT 01/01 A304 RMK A01 T00090005  RH  097%=      5-min Rain = 0
KHA2 081042Z 26004KT 01/01 A304 RMK A01 T00080005  RH  098%=      5-min Rain = 0
KHA2 081043Z 27004KT 01/01 A304 RMK A01 T00080005  RH  098%=      5-min Rain = 0
KHA2 081044Z 27004KT 01/01 A304 RMK A01 T00090005  RH  098%=      5-min Rain = 0
KHA2 081045Z 26004KT 01/01 A304 RMK A01 T00080005  RH  098%=      5-min Rain = 0
KHA2 081046Z 26004KT 01/01 A304 RMK A01 T00080005  RH  098%=      5-min Rain = 0
KHA2 081047Z 26004KT 01/01 A304 RMK A01 T00080005  RH  098%=      5-min Rain = 0
KHA2 081048Z 26004KT 01/01 A304 RMK A01 T00080005  RH  098%=      5-min Rain = 0
KHA2 081049Z 26005KT 01/01 A304 RMK A01 T00090006  RH  098%=      5-min Rain = 0
KHA2 081050Z 25004KT 01/01 A304 RMK A01 T00090006  RH  098%=      5-min Rain = 0
KHA2 081051Z 25004KT 01/01 A3039 RMK A01 T00090006  RH  098%=      5-min Rain = 0
KHA2 081052Z 25004KT 01/01 A3039 RMK A01 T00090006  RH  098%=      5-min Rain = 0
KHA2 081053Z 25004KT 01/01 A3039 RMK A01 T00090006  RH  098%=      5-min Rain = 0
KHA2 081054Z 24004KT 01/01 A3039 RMK A01 T00090006  RH  098%=      5-min Rain = 0
KHA2 081055Z 24004KT 01/01 A3039 RMK A01 T00090006  RH  098%=      5-min Rain = 0
KHA2 081056Z 25003KT 01/01 A3039 RMK A01 T00080006  RH  098%=      5-min Rain = 0
KHA2 081057Z 25004KT 01/01 A3039 RMK A01 T00090006  RH  098%=      5-min Rain = 0
KHA2 081058Z 24004KT 01/01 A3039 RMK A01 T00080006  RH  098%=      5-min Rain = 0
KHA2 081059Z 25005KT 01/01 A3039 RMK A01 T00090006  RH  098%=      5-min Rain = 0
KHA2 081100Z 24004KT 01/01 A3039 RMK A01 T00090006  RH  098%=      5-min Rain = 0
KHA2 081101Z 24005KT 01/01 A3039 RMK A01 T00090006  RH  098%=      5-min Rain = 0
KHA2 081102Z 24005KT 01/01 A3039 RMK A01 T00090006  RH  098%=      5-min Rain = 0
KHA2 081103Z 24005KT 01/01 A3039 RMK A01 T00090006  RH  098%=      5-min Rain = 0
KHA2 081104Z 23004KT 01/01 A3039 RMK A01 T00090006  RH  098%=      5-min Rain = 0
KHA2 081105Z 23005KT 01/01 A3039 RMK A01 T00090006  RH  098%=      5-min Rain = 0
KHA2 081106Z 23005KT 01/01 A3039 RMK A01 T00090006  RH  098%=      5-min Rain = 0
KHA2 081107Z 24005KT 01/01 A3039 RMK A01 T00090006  RH  098%=      5-min Rain = 0
KHA2 081108Z 24006KT 01/01 A3039 RMK A01 T00090007  RH  098%=      5-min Rain = 0
KHA2 081109Z 24005KT 01/01 A3039 RMK A01 T00090006  RH  098%=      5-min Rain = 0
KHA2 081110Z 25004KT 01/01 A3039 RMK A01 T00090006  RH  098%=      5-min Rain = 0
KHA2 081111Z 25005KT 01/01 A3039 RMK A01 T00090007  RH  098%=      5-min Rain = 0
KHA2 081112Z 25005KT 01/01 A3039 RMK A01 T00090007  RH  098%=      5-min Rain = 0
KHA2 081113Z 27004KT 01/01 A3039 RMK A01 T00100007  RH  098%=      5-min Rain = 0
KHA2 081114Z 27004KT 01/01 A3039 RMK A01 T00100007  RH  098%=      5-min Rain = 0
KHA2 081115Z 27005KT 01/01 A3039 RMK A01 T00100007  RH  098%=      5-min Rain = 0
KHA2 081116Z 28005KT 01/01 A3039 RMK A01 T00100007  RH  098%=      5-min Rain = 0
KHA2 081117Z 28005KT 01/01 A3039 RMK A01 T00100007  RH  098%=      5-min Rain = 0
KHA2 081118Z 27005KT 01/01 A3039 RMK A01 T00100007  RH  098%=      5-min Rain = 0
KHA2 081119Z 28005KT 01/01 A3039 RMK A01 T00090007  RH  098%=      5-min Rain = 0
KHA2 081120Z 27004KT 01/01 A3039 RMK A01 T00090007  RH  098%=      5-min Rain = 0
KHA2 081121Z 27004KT 01/01 A3039 RMK A01 T00090007  RH  098%=      5-min Rain = 0
KHA2 081122Z 26004KT 01/01 A3039 RMK A01 T00090007  RH  098%=      5-min Rain = 0
KHA2 081123Z 26004KT 01/01 A3039 RMK A01 T00090007  RH  098%=      5-min Rain = 0
KHA2 081124Z 25003KT 01/01 A3039 RMK A01 T00090007  RH  099%=      5-min Rain = 0
KHA2 081125Z 25003KT 01/01 A3039 RMK A01 T00090007  RH  098%=      5-min Rain = 0
KHA2 081126Z 25003KT 01/01 A3039 RMK A01 T00100008  RH  099%=      5-min Rain = 0
KHA2 081127Z 24003KT 01/01 A3039 RMK A01 T00100008  RH  098%=      5-min Rain = 0
KHA2 081128Z 24004KT 01/01 A3038 RMK A01 T00100008  RH  098%=      5-min Rain = 0
KHA2 081129Z 25003KT 01/01 A3038 RMK A01 T00100008  RH  098%=      5-min Rain = 0
KHA2 081130Z 25003KT 01/01 A3038 RMK A01 T00100008  RH  099%=      5-min Rain = 0
KHA2 081131Z 25005KT 01/01 A3038 RMK A01 T00100008  RH  099%=      5-min Rain = 0
KHA2 081132Z 25004KT 01/01 A3038 RMK A01 T00100008  RH  099%=      5-min Rain = 0
KHA2 081133Z 24004KT 01/01 A3038 RMK A01 T00100008  RH  099%=      5-min Rain = 0
KHA2 081134Z 24004KT 01/01 A3038 RMK A01 T00100008  RH  099%=      5-min Rain = 0
KHA2 081135Z 24005KT 01/01 A3038 RMK A01 T00100008  RH  099%=      5-min Rain = 0
KHA2 081136Z 24005KT 01/01 A3038 RMK A01 T00110009  RH  099%=      5-min Rain = 0
KHA2 081137Z 23005KT 01/01 A3038 RMK A01 T00100008  RH  099%=      5-min Rain = 0
KHA2 081138Z 23005KT 01/01 A3038 RMK A01 T00110009  RH  099%=      5-min Rain = 0
KHA2 081139Z 23006KT 01/01 A3038 RMK A01 T00110009  RH  099%=      5-min Rain = 0
KHA2 081140Z 23005KT 01/01 A3038 RMK A01 T00110009  RH  099%=      5-min Rain = 0
KHA2 081141Z 22005KT 01/01 A3038 RMK A01 T00110009  RH  099%=      5-min Rain = 0
KHA2 081142Z 23006KT 01/01 A3038 RMK A01 T00110009  RH  099%=      5-min Rain = 0
KHA2 081143Z 22006KT 01/01 A3038 RMK A01 T00110009  RH  099%=      5-min Rain = 0
KHA2 081144Z 22006KT 01/01 A3038 RMK A01 T00110009  RH  099%=      5-min Rain = 0
KHA2 081145Z 22006KT 01/01 A3038 RMK A01 T00110008  RH  099%=      5-min Rain = 0
KHA2 081146Z 22006KT 01/01 A3038 RMK A01 T00110009  RH  099%=      5-min Rain = 0
KHA2 081147Z 22006KT 01/01 A3038 RMK A01 T00110009  RH  099%=      5-min Rain = 0
KHA2 081148Z 21006KT 01/01 A3038 RMK A01 T00110009  RH  099%=      5-min Rain = 0
KHA2 081149Z 22006KT 01/01 A3038 RMK A01 T00110009  RH  099%=      5-min Rain = 0
KHA2 081150Z 21006KT 01/01 A3038 RMK A01 T00110009  RH  099%=      5-min Rain = 0
KHA2 081151Z 21005KT 01/01 A3038 RMK A01 T00110009  RH  099%=      5-min Rain = 0
KHA2 081152Z 21005KT 01/01 A3038 RMK A01 T00110009  RH  099%=      5-min Rain = 0
KHA2 081153Z 20005KT 01/01 A3038 RMK A01 T00110009  RH  099%=      5-min Rain = 0
KHA2 081154Z 21004KT 01/01 A3038 RMK A01 T00110009  RH  099%=      5-min Rain = 0
KHA2 081155Z 22004KT 01/01 A3038 RMK A01 T00110008  RH  099%=      5-min Rain = 0
KHA2 081156Z 22004KT 01/01 A3038 RMK A01 T00110009  RH  099%=      5-min Rain = 0
KHA2 081157Z 23004KT 01/01 A3038 RMK A01 T00110008  RH  099%=      5-min Rain = 0
KHA2 081158Z 22004KT 01/01 A3038 RMK A01 T00110009  RH  099%=      5-min Rain = 0
KHA2 081159Z 22003KT 01/01 A3038 RMK A01 T00110009  RH  099%=      5-min Rain = 0
KHA2 081200Z 23004KT 01/01 A3038 RMK A01 T00110009  RH  099%=      5-min Rain = 0
KHA2 081201Z 23004KT 01/01 A3038 RMK A01 T00120010  RH  099%=      5-min Rain = 0
KHA2 081202Z 23004KT 01/01 A3038 RMK A01 T00110009  RH  099%=      5-min Rain = 0
KHA2 081203Z 24004KT 01/01 A3038 RMK A01 T00110009  RH  099%=      5-min Rain = 0
KHA2 081204Z 24004KT 01/01 A3038 RMK A01 T00110009  RH  099%=      5-min Rain = 0
KHA2 081205Z 24004KT 01/01 A3038 RMK A01 T00110009  RH  099%=      5-min Rain = 0
KHA2 081206Z 24004KT 01/01 A3038 RMK A01 T00110009  RH  099%=      5-min Rain = 0
KHA2 081207Z 24004KT 01/01 A3038 RMK A01 T00110009  RH  099%=      5-min Rain = 0
KHA2 081208Z 24005KT 01/01 A3038 RMK A01 T00110009  RH  099%=      5-min Rain = 0
KHA2 081209Z 24004KT 01/01 A3038 RMK A01 T00110009  RH  099%=      5-min Rain = 0
KHA2 081210Z 24004KT 01/01 A3038 RMK A01 T00110009  RH  099%=      5-min Rain = 0
KHA2 081211Z 24004KT 01/01 A3038 RMK A01 T00110009  RH  099%=      5-min Rain = 0
KHA2 081212Z 24004KT 01/01 A3038 RMK A01 T00110009  RH  099%=      5-min Rain = 0
KHA2 081213Z 24004KT 01/01 A3038 RMK A01 T00110009  RH  099%=      5-min Rain = 0
KHA2 081214Z 23003KT 01/01 A3038 RMK A01 T00110009  RH  099%=      5-min Rain = 0
KHA2 081215Z 23003KT 01/01 A3038 RMK A01 T00120010  RH  099%=      5-min Rain = 0
KHA2 081216Z 23005KT 01/01 A3038 RMK A01 T00120010  RH  099%=      5-min Rain = 0
KHA2 081217Z 23004KT 01/01 A3038 RMK A01 T00120010  RH  099%=      5-min Rain = 0
KHA2 081218Z 22003KT 01/01 A3038 RMK A01 T00120010  RH  099%=      5-min Rain = 0
KHA2 081219Z 23004KT 01/01 A3038 RMK A01 T00120010  RH  099%=      5-min Rain = 0
KHA2 081220Z 24004KT 01/01 A3038 RMK A01 T00120010  RH  099%=      5-min Rain = 0
KHA2 081221Z 24004KT 01/01 A3038 RMK A01 T00120010  RH  099%=      5-min Rain = 0
KHA2 081222Z 24005KT 01/01 A3038 RMK A01 T00120010  RH  099%=      5-min Rain = 0
KHA2 081223Z 24004KT 01/01 A3038 RMK A01 T00120010  RH  099%=      5-min Rain = 0
KHA2 081224Z 25004KT 01/01 A3038 RMK A01 T00120010  RH  099%=      5-min Rain = 0
KHA2 081225Z 24004KT 01/01 A3038 RMK A01 T00120010  RH  099%=      5-min Rain = 0
KHA2 081226Z 24004KT 01/01 A3038 RMK A01 T00120010  RH  099%=      5-min Rain = 0
KHA2 081227Z 24004KT 01/01 A3038 RMK A01 T00120010  RH  099%=      5-min Rain = 0
KHA2 081228Z 24004KT 01/01 A3038 RMK A01 T00120010  RH  099%=      5-min Rain = 0
KHA2 081229Z 24003KT 01/01 A3038 RMK A01 T00120010  RH  099%=      5-min Rain = 0
KHA2 081230Z 24003KT 01/01 A3038 RMK A01 T00130011  RH  099%=      5-min Rain = 0
KHA2 081231Z 24003KT 01/01 A3038 RMK A01 T00130011  RH  099%=      5-min Rain = 0
KHA2 081232Z 24003KT 01/01 A3038 RMK A01 T00130011  RH  099%=      5-min Rain = 0
KHA2 081233Z 23003KT 01/01 A3038 RMK A01 T00130011  RH  099%=      5-min Rain = 0
KHA2 081234Z 23003KT 01/01 A3038 RMK A01 T00130011  RH  099%=      5-min Rain = 0
KHA2 081235Z 22003KT 01/01 A3038 RMK A01 T00140012  RH  099%=      5-min Rain = 0
KHA2 081236Z 22003KT 01/01 A3038 RMK A01 T00130011  RH  099%=      5-min Rain = 0
KHA2 081237Z 23003KT 01/01 A3038 RMK A01 T00130012  RH  099%=      5-min Rain = 0
KHA2 081238Z 23004KT 01/01 A3038 RMK A01 T00130012  RH  099%=      5-min Rain = 0
KHA2 081239Z 23004KT 01/01 A3038 RMK A01 T00130011  RH  099%=      5-min Rain = 0
KHA2 081240Z 23003KT 01/01 A3038 RMK A01 T00130011  RH  099%=      5-min Rain = 0
KHA2 081241Z 25003KT 01/01 A3038 RMK A01 T00130012  RH  099%=      5-min Rain = 0
KHA2 081242Z 23003KT 01/01 A3038 RMK A01 T00140012  RH  099%=      5-min Rain = 0
KHA2 081243Z 23004KT 01/01 A3038 RMK A01 T00140013  RH  099%=      5-min Rain = 0
KHA2 081244Z 24004KT 01/01 A3038 RMK A01 T00140012  RH  099%=      5-min Rain = 0
KHA2 081245Z 23004KT 01/01 A3038 RMK A01 T00140012  RH  099%=      5-min Rain = 0
KHA2 081246Z 22004KT 01/01 A3038 RMK A01 T00140013  RH  099%=      5-min Rain = 0
KHA2 081247Z 23003KT 01/01 A3038 RMK A01 T00140013  RH  099%=      5-min Rain = 0
KHA2 081248Z 23003KT 01/01 A3038 RMK A01 T00140013  RH  099%=      5-min Rain = 0
KHA2 081249Z 23003KT 01/01 A3038 RMK A01 T00140013  RH  099%=      5-min Rain = 0
KHA2 081250Z 23002KT 02/01 A3038 RMK A01 T00150013  RH  099%=      5-min Rain = 0
KHA2 081251Z 23003KT 02/01 A3038 RMK A01 T00150013  RH  099%=      5-min Rain = 0
KHA2 081252Z 22003KT 02/01 A3038 RMK A01 T00150013  RH  099%=      5-min Rain = 0
KHA2 081253Z 22003KT 02/01 A3038 RMK A01 T00150013  RH  099%=      5-min Rain = 0
KHA2 081254Z 23003KT 02/01 A3038 RMK A01 T00150014  RH  099%=      5-min Rain = 0
KHA2 081255Z 23003KT 02/01 A3038 RMK A01 T00150014  RH  099%=      5-min Rain = 0
KHA2 081256Z 24003KT 02/01 A3038 RMK A01 T00150014  RH  099%=      5-min Rain = 0
KHA2 081257Z 24003KT 02/01 A3038 RMK A01 T00150014  RH  099%=      5-min Rain = 0
KHA2 081258Z 26003KT 02/01 A3038 RMK A01 T00150013  RH  099%=      5-min Rain = 0
KHA2 081259Z 26003KT 02/01 A3039 RMK A01 T00150014  RH  099%=      5-min Rain = 0
KHA2 081300Z 26003KT 02/01 A3039 RMK A01 T00150013  RH  099%=      5-min Rain = 0
KHA2 081301Z 26003KT 02/01 A3039 RMK A01 T00150014  RH  099%=      5-min Rain = 0
KHA2 081302Z 25003KT 02/01 A3039 RMK A01 T00150014  RH  099%=      5-min Rain = 0
KHA2 081303Z 25002KT 02/01 A3039 RMK A01 T00150014  RH  099%=      5-min Rain = 0
KHA2 081304Z 24003KT 02/01 A3039 RMK A01 T00160014  RH  099%=      5-min Rain = 0
KHA2 081305Z 24003KT 02/01 A3039 RMK A01 T00160014  RH  099%=      5-min Rain = 0
KHA2 081306Z 23003KT 02/01 A3039 RMK A01 T00160014  RH  099%=      5-min Rain = 0
KHA2 081307Z 23004KT 02/01 A3039 RMK A01 T00160014  RH  099%=      5-min Rain = 0
KHA2 081308Z 23004KT 02/02 A3039 RMK A01 T00160015  RH  099%=      5-min Rain = 0
KHA2 081309Z 24004KT 02/02 A3039 RMK A01 T00170015  RH  099%=      5-min Rain = 0
KHA2 081310Z 23004KT 02/02 A3038 RMK A01 T00170015  RH  099%=      5-min Rain = 0
KHA2 081311Z 23004KT 02/02 A3038 RMK A01 T00170015  RH  099%=      5-min Rain = 0
KHA2 081312Z 23004KT 02/02 A3038 RMK A01 T00160015  RH  099%=      5-min Rain = 0
KHA2 081313Z 23004KT 02/02 A3038 RMK A01 T00170015  RH  099%=      5-min Rain = 0
KHA2 081314Z 23004KT 02/02 A3038 RMK A01 T00160015  RH  099%=      5-min Rain = 0
KHA2 081315Z 24004KT 02/02 A3038 RMK A01 T00160015  RH  099%=      5-min Rain = 0
KHA2 081316Z 24004KT 02/02 A3038 RMK A01 T00170015  RH  099%=      5-min Rain = 0
KHA2 081317Z 24004KT 02/02 A3039 RMK A01 T00170015  RH  099%=      5-min Rain = 0
KHA2 081318Z 25004KT 02/02 A3039 RMK A01 T00170015  RH  099%=      5-min Rain = 0
KHA2 081319Z 24004KT 02/02 A3039 RMK A01 T00170015  RH  099%=      5-min Rain = 0
KHA2 081320Z 25005KT 02/02 A3039 RMK A01 T00170015  RH  099%=      5-min Rain = 0
KHA2 081321Z 24004KT 02/02 A3039 RMK A01 T00170015  RH  099%=      5-min Rain = 0
KHA2 081322Z 24004KT 02/02 A3039 RMK A01 T00170015  RH  099%=      5-min Rain = 0
KHA2 081323Z 24004KT 02/02 A3039 RMK A01 T00170015  RH  099%=      5-min Rain = 0
KHA2 081324Z 24003KT 02/02 A3039 RMK A01 T00170015  RH  099%=      5-min Rain = 0
KHA2 081325Z 25004KT 02/02 A3039 RMK A01 T00170015  RH  099%=      5-min Rain = 0
KHA2 081326Z 26003KT 02/02 A3039 RMK A01 T00170015  RH  099%=      5-min Rain = 0
KHA2 081327Z 27003KT 02/02 A3039 RMK A01 T00170016  RH  099%=      5-min Rain = 0
KHA2 081328Z 27003KT 02/02 A304 RMK A01 T00170015  RH  099%=      5-min Rain = 0
KHA2 081329Z 27004KT 02/02 A304 RMK A01 T00170016  RH  099%=      5-min Rain = 0
KHA2 081330Z 26004KT 02/02 A304 RMK A01 T00170016  RH  099%=      5-min Rain = 0
KHA2 081331Z 27003KT 02/02 A304 RMK A01 T00170015  RH  099%=      5-min Rain = 0
KHA2 081332Z 26003KT 02/02 A304 RMK A01 T00170015  RH  099%=      5-min Rain = 0
KHA2 081333Z 25003KT 02/02 A304 RMK A01 T00170016  RH  099%=      5-min Rain = 0
KHA2 081334Z 25003KT 02/02 A304 RMK A01 T00180016  RH  099%=      5-min Rain = 0
KHA2 081335Z 25002KT 02/02 A304 RMK A01 T00180016  RH  099%=      5-min Rain = 0
KHA2 081336Z 26002KT 02/02 A304 RMK A01 T00180016  RH  099%=      5-min Rain = 0
KHA2 081337Z 27002KT 02/02 A304 RMK A01 T00180016  RH  099%=      5-min Rain = 0
KHA2 081338Z 29002KT 02/02 A304 RMK A01 T00180016  RH  099%=      5-min Rain = 0
KHA2 081339Z 27003KT 02/02 A304 RMK A01 T00180016  RH  099%=      5-min Rain = 0
KHA2 081340Z 27003KT 02/02 A304 RMK A01 T00180016  RH  099%=      5-min Rain = 0
KHA2 081341Z 29002KT 02/02 A304 RMK A01 T00180016  RH  099%=      5-min Rain = 0
KHA2 081342Z 28002KT 02/02 A304 RMK A01 T00180016  RH  099%=      5-min Rain = 0
KHA2 081343Z 28002KT 02/02 A304 RMK A01 T00180016  RH  099%=      5-min Rain = 0
KHA2 081344Z 27002KT 02/02 A304 RMK A01 T00190017  RH  099%=      5-min Rain = 0
KHA2 081345Z 26003KT 02/02 A304 RMK A01 T00180017  RH  099%=      5-min Rain = 0
KHA2 081346Z 26002KT 02/02 A304 RMK A01 T00190017  RH  099%=      5-min Rain = 0
KHA2 081347Z 25002KT 02/02 A304 RMK A01 T00180016  RH  099%=      5-min Rain = 0
KHA2 081348Z 24001KT 02/02 A304 RMK A01 T00180017  RH  099%=      5-min Rain = 0
KHA2 081349Z 23002KT 02/02 A304 RMK A01 T00190017  RH  099%=      5-min Rain = 0
KHA2 081350Z 23002KT 02/02 A304 RMK A01 T00190017  RH  099%=      5-min Rain = 0
KHA2 081351Z 25003KT 02/02 A304 RMK A01 T00190017  RH  099%=      5-min Rain = 0
KHA2 081352Z 22002KT 02/02 A3039 RMK A01 T00190017  RH  099%=      5-min Rain = 0
KHA2 081353Z 22003KT 02/02 A3039 RMK A01 T00200018  RH  099%=      5-min Rain = 0
KHA2 081354Z 21003KT 02/02 A3039 RMK A01 T00200018  RH  099%=      5-min Rain = 0
KHA2 081355Z 21004KT 02/02 A3039 RMK A01 T00200018  RH  098%=      5-min Rain = 0
KHA2 081356Z 22004KT 02/02 A3039 RMK A01 T00200018  RH  099%=      5-min Rain = 0
KHA2 081357Z 21004KT 02/02 A3039 RMK A01 T00210018  RH  099%=      5-min Rain = 0
KHA2 081358Z 21004KT 02/02 A3039 RMK A01 T00200018  RH  098%=      5-min Rain = 0
KHA2 081359Z 22004KT 02/02 A3039 RMK A01 T00200018  RH  098%=      5-min Rain = 0
KHA2 081400Z 23004KT 02/02 A3039 RMK A01 T00200018  RH  098%=      5-min Rain = 0
KHA2 081401Z 23003KT 02/02 A3039 RMK A01 T00200017  RH  098%=      5-min Rain = 0
KHA2 081402Z 24002KT 02/02 A3039 RMK A01 T00200018  RH  098%=      5-min Rain = 0
KHA2 081403Z 22002KT 02/02 A3039 RMK A01 T00200018  RH  098%=      5-min Rain = 0
KHA2 081404Z 21003KT 02/02 A3039 RMK A01 T00210018  RH  098%=      5-min Rain = 0
KHA2 081405Z 21003KT 02/02 A3039 RMK A01 T00210019  RH  098%=      5-min Rain = 0
KHA2 081406Z 21003KT 02/02 A3039 RMK A01 T00210019  RH  098%=      5-min Rain = 0
KHA2 081407Z 21003KT 02/02 A3039 RMK A01 T00210019  RH  098%=      5-min Rain = 0
KHA2 081408Z 20003KT 02/02 A3039 RMK A01 T00210018  RH  098%=      5-min Rain = 0
KHA2 081409Z 21003KT 02/02 A3039 RMK A01 T00210019  RH  098%=      5-min Rain = 0
KHA2 081410Z 22003KT 02/02 A304 RMK A01 T00210019  RH  098%=      5-min Rain = 0
KHA2 081411Z 22003KT 02/02 A304 RMK A01 T00210019  RH  098%=      5-min Rain = 0
KHA2 081412Z 23003KT 02/02 A304 RMK A01 T00210018  RH  098%=      5-min Rain = 0
KHA2 081413Z 22003KT 02/02 A304 RMK A01 T00210019  RH  098%=      5-min Rain = 0
KHA2 081414Z 23003KT 02/02 A304 RMK A01 T00210019  RH  098%=      5-min Rain = 0
KHA2 081415Z 22003KT 02/02 A304 RMK A01 T00210019  RH  098%=      5-min Rain = 0
KHA2 081416Z 22003KT 02/02 A3039 RMK A01 T00220019  RH  098%=      5-min Rain = 0
KHA2 081417Z 20003KT 02/02 A3039 RMK A01 T00220019  RH  098%=      5-min Rain = 0
KHA2 081418Z 20004KT 02/02 A3039 RMK A01 T00230020  RH  098%=      5-min Rain = 0
KHA2 081419Z 19004KT 02/02 A3039 RMK A01 T00220020  RH  098%=      5-min Rain = 0
KHA2 081420Z 19005KT 02/02 A3039 RMK A01 T00230020  RH  098%=      5-min Rain = 0
KHA2 081421Z 19005KT 02/02 A3039 RMK A01 T00230020  RH  098%=      5-min Rain = 0
KHA2 081422Z 19005KT 02/02 A3039 RMK A01 T00230021  RH  098%=      5-min Rain = 0
KHA2 081423Z 18005KT 02/02 A3039 RMK A01 T00230021  RH  098%=      5-min Rain = 0
KHA2 081424Z 18005KT 02/02 A3039 RMK A01 T00230021  RH  098%=      5-min Rain = 0
KHA2 081425Z 18005KT 02/02 A3039 RMK A01 T00230021  RH  098%=      5-min Rain = 0
KHA2 081426Z 17005KT 02/02 A3039 RMK A01 T00240021  RH  098%=      5-min Rain = 0
KHA2 081427Z 17006KT 02/02 A3039 RMK A01 T00240022  RH  098%=      5-min Rain = 0
KHA2 081428Z 18005KT 03/02 A3039 RMK A01 T00250022  RH  098%=      5-min Rain = 0
KHA2 081429Z 18006KT 02/02 A3039 RMK A01 T00240021  RH  098%=      5-min Rain = 0
KHA2 081430Z 18006KT 02/02 A3039 RMK A01 T00240021  RH  098%=      5-min Rain = 0
KHA2 081431Z 18006KT 02/02 A3039 RMK A01 T00240021  RH  098%=      5-min Rain = 0
KHA2 081432Z 18006KT 02/02 A3039 RMK A01 T00240022  RH  098%=      5-min Rain = 0
KHA2 081433Z 18006KT 02/02 A3039 RMK A01 T00240022  RH  098%=      5-min Rain = 0
KHA2 081434Z 18006KT 03/02 A3039 RMK A01 T00250022  RH  098%=      5-min Rain = 0
KHA2 081435Z 18006KT 03/02 A3039 RMK A01 T00250023  RH  098%=      5-min Rain = 0
KHA2 081436Z 17005KT 03/02 A3039 RMK A01 T00250023  RH  098%=      5-min Rain = 0
KHA2 081437Z 17006KT 03/02 A3039 RMK A01 T00260023  RH  098%=      5-min Rain = 0
KHA2 081438Z 18006KT 03/02 A3039 RMK A01 T00260023  RH  098%=      5-min Rain = 0
KHA2 081439Z 18006KT 03/02 A3039 RMK A01 T00260023  RH  098%=      5-min Rain = 0
KHA2 081440Z 18006KT 03/02 A3039 RMK A01 T00260023  RH  098%=      5-min Rain = 0
KHA2 081441Z 18006KT 03/02 A3039 RMK A01 T00260023  RH  098%=      5-min Rain = 0
KHA2 081442Z 17005KT 03/02 A3039 RMK A01 T00260023  RH  098%=      5-min Rain = 0
KHA2 081443Z 18005KT 03/02 A3039 RMK A01 T00270024  RH  098%=      5-min Rain = 0
KHA2 081444Z 18006KT 03/03 A3039 RMK A01 T00290026  RH  098%=      5-min Rain = 0
KHA2 081445Z 18007KT 03/03 A3039 RMK A01 T00280026  RH  098%=      5-min Rain = 0
KHA2 081446Z 18007KT 03/03 A3039 RMK A01 T00280025  RH  098%=      5-min Rain = 0
KHA2 081447Z 18005KT 03/03 A3039 RMK A01 T00280025  RH  098%=      5-min Rain = 0
KHA2 081448Z 18006KT 03/03 A3039 RMK A01 T00280026  RH  098%=      5-min Rain = 0
KHA2 081449Z 18006KT 03/03 A3039 RMK A01 T00280026  RH  098%=      5-min Rain = 0
KHA2 081450Z 18006KT 03/02 A304 RMK A01 T00270024  RH  098%=      5-min Rain = 0
KHA2 081451Z 18005KT 03/02 A304 RMK A01 T00270024  RH  098%=      5-min Rain = 0
KHA2 081452Z 19005KT 03/02 A304 RMK A01 T00270024  RH  098%=      5-min Rain = 0
KHA2 081453Z 18005KT 03/03 A304 RMK A01 T00280026  RH  098%=      5-min Rain = 0
KHA2 081454Z 20006KT 03/03 A304 RMK A01 T00290026  RH  098%=      5-min Rain = 0
KHA2 081455Z 20006KT 03/03 A304 RMK A01 T00290026  RH  098%=      5-min Rain = 0
KHA2 081456Z 19005KT 03/03 A304 RMK A01 T00290026  RH  098%=      5-min Rain = 0
KHA2 081457Z 19006KT 03/03 A304 RMK A01 T00290026  RH  098%=      5-min Rain = 0
KHA2 081458Z 19006KT 03/03 A304 RMK A01 T00290026  RH  098%=      5-min Rain = 0
KHA2 081459Z 19006KT 03/03 A304 RMK A01 T00290026  RH  098%=      5-min Rain = 0
KHA2 081500Z 19006KT 03/03 A304 RMK A01 T00300027  RH  098%=      5-min Rain = 0
KHA2 081501Z 19006KT 03/03 A304 RMK A01 T00300027  RH  098%=      5-min Rain = 0
KHA2 081502Z 20006KT 03/03 A304 RMK A01 T00300027  RH  098%=      5-min Rain = 0
KHA2 081503Z 20006KT 03/03 A304 RMK A01 T00290026  RH  098%=      5-min Rain = 0
KHA2 081504Z 19006KT 03/03 A304 RMK A01 T00290026  RH  098%=      5-min Rain = 0
KHA2 081505Z 19007KT 03/03 A304 RMK A01 T00290026  RH  098%=      5-min Rain = 0
KHA2 081506Z 19006KT 03/03 A304 RMK A01 T00300027  RH  098%=      5-min Rain = 0
KHA2 081507Z 19005KT 03/03 A304 RMK A01 T00300027  RH  098%=      5-min Rain = 0
KHA2 081508Z 19006KT 03/03 A304 RMK A01 T00310028  RH  098%=      5-min Rain = 0
KHA2 081509Z 18006KT 03/03 A304 RMK A01 T00310028  RH  098%=      5-min Rain = 0
KHA2 081510Z 18007KT 03/03 A304 RMK A01 T00310028  RH  098%=      5-min Rain = 0
KHA2 081511Z 19007KT 03/03 A304 RMK A01 T00300027  RH  098%=      5-min Rain = 0
KHA2 081512Z 19007KT 03/03 A304 RMK A01 T00300027  RH  098%=      5-min Rain = 0
KHA2 081513Z 19007KT 03/03 A304 RMK A01 T00300027  RH  098%=      5-min Rain = 0
KHA2 081514Z 19006KT 03/03 A304 RMK A01 T00300027  RH  098%=      5-min Rain = 0
KHA2 081515Z 19006KT 03/03 A304 RMK A01 T00300027  RH  098%=      5-min Rain = 0
KHA2 081516Z 18007KT 03/03 A304 RMK A01 T00310028  RH  098%=      5-min Rain = 0
KHA2 081517Z 18007KT 03/03 A304 RMK A01 T00310028  RH  098%=      5-min Rain = 0
KHA2 081518Z 19006KT 03/03 A3039 RMK A01 T00310028  RH  098%=      5-min Rain = 0
KHA2 081519Z 19007KT 03/03 A3039 RMK A01 T00310028  RH  098%=      5-min Rain = 0
KHA2 081520Z 19007KT 03/03 A3039 RMK A01 T00330030  RH  098%=      5-min Rain = 0
KHA2 081521Z 19007KT 03/03 A3039 RMK A01 T00330031  RH  098%=      5-min Rain = 0
KHA2 081522Z 19008KT 03/03 A3039 RMK A01 T00330030  RH  098%=      5-min Rain = 0
KHA2 081523Z 20009KT 03/03 A3039 RMK A01 T00330030  RH  098%=      5-min Rain = 0
KHA2 081524Z 19007KT 03/03 A3039 RMK A01 T00330030  RH  098%=      5-min Rain = 0
KHA2 081525Z 19008KT 03/03 A3039 RMK A01 T00330030  RH  098%=      5-min Rain = 0
KHA2 081526Z 19009KT 03/03 A3039 RMK A01 T00340031  RH  098%=      5-min Rain = 0
KHA2 081527Z 19010KT 03/03 A3039 RMK A01 T00340031  RH  098%=      5-min Rain = 0
KHA2 081528Z 19009KT 03/03 A3039 RMK A01 T00340031  RH  098%=      5-min Rain = 0
KHA2 081529Z 19008KT 03/03 A3039 RMK A01 T00340031  RH  098%=      5-min Rain = 0
KHA2 081530Z 19008KT 04/03 A3039 RMK A01 T00350032  RH  098%=      5-min Rain = 0
KHA2 081531Z 19009KT 04/03 A3039 RMK A01 T00360034  RH  098%=      5-min Rain = 0
KHA2 081532Z 20010KT 04/03 A3039 RMK A01 T00360033  RH  098%=      5-min Rain = 0
KHA2 081533Z 19008KT 04/03 A3039 RMK A01 T00350032  RH  098%=      5-min Rain = 0
KHA2 081534Z 19007KT 04/03 A3039 RMK A01 T00360032  RH  098%=      5-min Rain = 0
KHA2 081535Z 20008KT 04/03 A3039 RMK A01 T00360033  RH  098%=      5-min Rain = 0
KHA2 081536Z 19009KT 04/03 A3039 RMK A01 T00360033  RH  098%=      5-min Rain = 0
KHA2 081537Z 19009KT 04/03 A3039 RMK A01 T00350032  RH  098%=      5-min Rain = 0
KHA2 081538Z 20008KT 04/03 A3039 RMK A01 T00350031  RH  098%=      5-min Rain = 0
KHA2 081539Z 20008KT 04/03 A3039 RMK A01 T00360033  RH  098%=      5-min Rain = 0
KHA2 081540Z 19008KT 04/03 A3039 RMK A01 T00370034  RH  098%=      5-min Rain = 0
KHA2 081541Z 20007KT 04/03 A3039 RMK A01 T00370034  RH  098%=      5-min Rain = 0
KHA2 081542Z 20008KT 04/04 A3039 RMK A01 T00380035  RH  098%=      5-min Rain = 0
KHA2 081543Z 20008KT 04/04 A3039 RMK A01 T00380035  RH  098%=      5-min Rain = 0
KHA2 081544Z 20007KT 04/04 A3039 RMK A01 T00380035  RH  098%=      5-min Rain = 0
KHA2 081545Z 20009KT 04/04 A3039 RMK A01 T00380035  RH  098%=      5-min Rain = 0
KHA2 081546Z 20009KT 04/04 A3039 RMK A01 T00380035  RH  098%=      5-min Rain = 0
KHA2 081547Z 20009KT 04/03 A3039 RMK A01 T00370034  RH  098%=      5-min Rain = 0
KHA2 081548Z 20008KT 04/03 A3039 RMK A01 T00370033  RH  097%=      5-min Rain = 0
KHA2 081549Z 20009KT 04/03 A3039 RMK A01 T00370033  RH  098%=      5-min Rain = 0
KHA2 081550Z 20008KT 04/03 A3039 RMK A01 T00380034  RH  098%=      5-min Rain = 0
KHA2 081551Z 21010KT 04/04 A3039 RMK A01 T00380035  RH  098%=      5-min Rain = 0
KHA2 081552Z 21011KT 04/04 A3039 RMK A01 T00390035  RH  098%=      5-min Rain = 0
KHA2 081553Z 21011KT 04/03 A3039 RMK A01 T00380034  RH  097%=      5-min Rain = 0
KHA2 081554Z 22010KT 04/03 A3039 RMK A01 T00380034  RH  097%=      5-min Rain = 0
KHA2 081555Z 22009KT 04/03 A3039 RMK A01 T00380034  RH  097%=      5-min Rain = 0
KHA2 081556Z 22008KT 04/03 A3039 RMK A01 T00380034  RH  097%=      5-min Rain = 0
KHA2 081557Z 21008KT 04/04 A3039 RMK A01 T00390035  RH  097%=      5-min Rain = 0
KHA2 081558Z 21010KT 04/04 A3039 RMK A01 T00400036  RH  097%=      5-min Rain = 0
KHA2 081559Z 21009KT 04/04 A3039 RMK A01 T00400035  RH  097%=      5-min Rain = 0
KHA2 081600Z 22010KT 04/04 A3039 RMK A01 T00390035  RH  097%=      5-min Rain = 0
KHA2 081601Z 21010KT 04/03 A3039 RMK A01 T00390034  RH  097%=      5-min Rain = 0
KHA2 081602Z 22009KT 04/03 A3039 RMK A01 T00380033  RH  097%=      5-min Rain = 0
KHA2 081603Z 22009KT 04/03 A3039 RMK A01 T00390034  RH  097%=      5-min Rain = 0
KHA2 081604Z 22008KT 04/03 A3039 RMK A01 T00390034  RH  097%=      5-min Rain = 0
KHA2 081605Z 22008KT 04/03 A3039 RMK A01 T00390034  RH  097%=      5-min Rain = 0
KHA2 081606Z 21008KT 04/03 A3039 RMK A01 T00390034  RH  096%=      5-min Rain = 0
KHA2 081607Z 22009KT 04/03 A3039 RMK A01 T00390034  RH  096%=      5-min Rain = 0
KHA2 081608Z 22009KT 04/03 A3039 RMK A01 T00390034  RH  096%=      5-min Rain = 0
KHA2 081609Z 21008KT 04/03 A3039 RMK A01 T00400034  RH  096%=      5-min Rain = 0
KHA2 081610Z 21008KT 04/04 A3039 RMK A01 T00410035  RH  096%=      5-min Rain = 0
KHA2 081611Z 21009KT 04/04 A3039 RMK A01 T00410036  RH  096%=      5-min Rain = 0
KHA2 081612Z 21009KT 04/04 A3039 RMK A01 T00410035  RH  096%=      5-min Rain = 0
KHA2 081613Z 22009KT 04/04 A3039 RMK A01 T00410035  RH  096%=      5-min Rain = 0
KHA2 081614Z 22010KT 04/04 A3039 RMK A01 T00410035  RH  096%=      5-min Rain = 0
KHA2 081615Z 22009KT 04/04 A3039 RMK A01 T00400035  RH  096%=      5-min Rain = 0
KHA2 081616Z 21009KT 04/04 A3039 RMK A01 T00410035  RH  096%=      5-min Rain = 0
KHA2 081617Z 21008KT 04/04 A3039 RMK A01 T00420037  RH  096%=      5-min Rain = 0
KHA2 081618Z 22007KT 04/04 A3039 RMK A01 T00430038  RH  096%=      5-min Rain = 0
KHA2 081619Z 21010KT 04/04 A3039 RMK A01 T00440039  RH  097%=      5-min Rain = 0
KHA2 081620Z 21008KT 04/04 A3039 RMK A01 T00440038  RH  096%=      5-min Rain = 0
KHA2 081621Z 22008KT 04/04 A3039 RMK A01 T00440039  RH  096%=      5-min Rain = 0
KHA2 081622Z 22008KT 05/04 A3039 RMK A01 T00450039  RH  096%=      5-min Rain = 0
KHA2 081623Z 22009KT 05/04 A3039 RMK A01 T00450040  RH  096%=      5-min Rain = 0
KHA2 081624Z 23008KT 05/04 A3039 RMK A01 T00460040  RH  096%=      5-min Rain = 0
KHA2 081625Z 22008KT 05/04 A3039 RMK A01 T00450039  RH  096%=      5-min Rain = 0
KHA2 081626Z 22007KT 04/04 A3039 RMK A01 T00440038  RH  096%=      5-min Rain = 0
KHA2 081627Z 22008KT 04/04 A3039 RMK A01 T00440038  RH  096%=      5-min Rain = 0
KHA2 081628Z 21010KT 05/04 A3039 RMK A01 T00450040  RH  096%=      5-min Rain = 0
KHA2 081629Z 22010KT 05/04 A3039 RMK A01 T00460041  RH  096%=      5-min Rain = 0
KHA2 081630Z 22009KT 05/04 A3039 RMK A01 T00460040  RH  096%=      5-min Rain = 0
KHA2 081631Z 22009KT 05/04 A3039 RMK A01 T00460040  RH  096%=      5-min Rain = 0
KHA2 081632Z 22010KT 05/04 A3039 RMK A01 T00460040  RH  096%=      5-min Rain = 0
KHA2 081633Z 21012KT 05/04 A3039 RMK A01 T00470041  RH  096%=      5-min Rain = 0
KHA2 081634Z 21011KT 05/04 A3039 RMK A01 T00470040  RH  096%=      5-min Rain = 0
KHA2 081635Z 21014KT 05/04 A3039 RMK A01 T00470041  RH  096%=      5-min Rain = 0
KHA2 081636Z 21012KT 05/04 A3039 RMK A01 T00470040  RH  095%=      5-min Rain = 0
KHA2 081637Z 22009KT 05/04 A3039 RMK A01 T00470039  RH  095%=      5-min Rain = 0
KHA2 081638Z 22010KT 05/04 A3039 RMK A01 T00480041  RH  095%=      5-min Rain = 0
KHA2 081639Z 23012KT 05/04 A3039 RMK A01 T00490042  RH  095%=      5-min Rain = 0
KHA2 081640Z 22012KT 05/04 A3039 RMK A01 T00480040  RH  095%=      5-min Rain = 0
KHA2 081641Z 21013KT 05/04 A3038 RMK A01 T00470039  RH  095%=      5-min Rain = 0
KHA2 081642Z 22012KT 05/04 A3038 RMK A01 T00470039  RH  095%=      5-min Rain = 0
KHA2 081643Z 22011KT 05/04 A3038 RMK A01 T00470039  RH  095%=      5-min Rain = 0
KHA2 081644Z 21013KT 05/04 A3038 RMK A01 T00480040  RH  095%=      5-min Rain = 0
KHA2 081645Z 21013KT 05/04 A3038 RMK A01 T00490041  RH  095%=      5-min Rain = 0
KHA2 081646Z 21014KT 05/04 A3038 RMK A01 T00490040  RH  094%=      5-min Rain = 0
KHA2 081647Z 21013KT 05/04 A3038 RMK A01 T00490039  RH  094%=      5-min Rain = 0
KHA2 081648Z 22014KT 05/04 A3038 RMK A01 T00480039  RH  094%=      5-min Rain = 0
KHA2 081649Z 22013KT 05/04 A3038 RMK A01 T00480039  RH  094%=      5-min Rain = 0
KHA2 081650Z 21013KT 05/04 A3038 RMK A01 T00480039  RH  094%=      5-min Rain = 0
KHA2 081651Z 21014KT 05/04 A3038 RMK A01 T00480039  RH  094%=      5-min Rain = 0
KHA2 081652Z 22014KT 05/04 A3038 RMK A01 T00480039  RH  094%=      5-min Rain = 0
KHA2 081653Z 22012KT 05/04 A3038 RMK A01 T00480039  RH  094%=      5-min Rain = 0
KHA2 081654Z 22010KT 05/04 A3038 RMK A01 T00480039  RH  094%=      5-min Rain = 0
KHA2 081655Z 23013KT 05/04 A3038 RMK A01 T00480039  RH  094%=      5-min Rain = 0
KHA2 081656Z 22011KT 05/04 A3038 RMK A01 T00470038  RH  094%=      5-min Rain = 0
KHA2 081657Z 22011KT 05/04 A3038 RMK A01 T00480039  RH  094%=      5-min Rain = 0
KHA2 081658Z 22013KT 05/04 A3038 RMK A01 T00490041  RH  095%=      5-min Rain = 0
KHA2 081659Z 23012KT 05/04 A3038 RMK A01 T00490041  RH  095%=      5-min Rain = 0
KHA2 081700Z 22013KT 05/04 A3038 RMK A01 T00500041  RH  094%=      5-min Rain = 0
KHA2 081701Z 22013KT 05/04 A3038 RMK A01 T00500041  RH  094%=      5-min Rain = 0
KHA2 081702Z 23013KT 05/04 A3038 RMK A01 T00500041  RH  094%=      5-min Rain = 0
KHA2 081703Z 23013KT 05/04 A3038 RMK A01 T00490039  RH  094%=      5-min Rain = 0
KHA2 081704Z 23011KT 05/04 A3038 RMK A01 T00480038  RH  094%=      5-min Rain = 0
KHA2 081705Z 23012KT 05/04 A3038 RMK A01 T00480039  RH  094%=      5-min Rain = 0
KHA2 081706Z 23013KT 05/04 A3038 RMK A01 T00490039  RH  094%=      5-min Rain = 0
KHA2 081707Z 23013KT 05/04 A3038 RMK A01 T00490039  RH  094%=      5-min Rain = 0
KHA2 081708Z 23011KT 05/04 A3038 RMK A01 T00480039  RH  094%=      5-min Rain = 0
KHA2 081709Z 21012KT 05/04 A3038 RMK A01 T00490041  RH  094%=      5-min Rain = 0
KHA2 081710Z 21013KT 05/04 A3037 RMK A01 T00500041  RH  094%=      5-min Rain = 0
KHA2 081711Z 22014KT 05/04 A3037 RMK A01 T00500040  RH  094%=      5-min Rain = 0
KHA2 081712Z 22014KT 05/04 A3037 RMK A01 T00490040  RH  093%=      5-min Rain = 0
KHA2 081713Z 22014KT 05/04 A3037 RMK A01 T00500040  RH  093%=      5-min Rain = 0
KHA2 081714Z 22012KT 05/04 A3037 RMK A01 T00490039  RH  093%=      5-min Rain = 0
KHA2 081715Z 22015KT 05/04 A3037 RMK A01 T00500040  RH  094%=      5-min Rain = 0
KHA2 081716Z 22014KT 05/04 A3037 RMK A01 T00490039  RH  093%=      5-min Rain = 0
KHA2 081717Z 22013KT 05/04 A3037 RMK A01 T00480038  RH  093%=      5-min Rain = 0
KHA2 081718Z 23012KT 05/04 A3037 RMK A01 T00480038  RH  093%=      5-min Rain = 0
KHA2 081719Z 23012KT 05/04 A3037 RMK A01 T00490039  RH  094%=      5-min Rain = 0
KHA2 081720Z 23012KT 05/04 A3037 RMK A01 T00500040  RH  094%=      5-min Rain = 0
KHA2 081721Z 22012KT 05/04 A3037 RMK A01 T00500041  RH  094%=      5-min Rain = 0
KHA2 081722Z 22011KT 05/04 A3037 RMK A01 T00510041  RH  094%=      5-min Rain = 0
KHA2 081723Z 23011KT 05/04 A3037 RMK A01 T00510041  RH  093%=      5-min Rain = 0
KHA2 081724Z 21011KT 05/04 A3037 RMK A01 T00510041  RH  093%=      5-min Rain = 0
KHA2 081725Z 21012KT 05/04 A3037 RMK A01 T00510041  RH  093%=      5-min Rain = 0
KHA2 081726Z 22013KT 05/04 A3037 RMK A01 T00510040  RH  093%=      5-min Rain = 0
KHA2 081727Z 22014KT 05/04 A3037 RMK A01 T00510041  RH  093%=      5-min Rain = 0
KHA2 081728Z 22012KT 05/04 A3037 RMK A01 T00510040  RH  093%=      5-min Rain = 0
KHA2 081729Z 23011KT 05/04 A3037 RMK A01 T00510041  RH  093%=      5-min Rain = 0
KHA2 081730Z 21012KT 05/04 A3037 RMK A01 T00510041  RH  093%=      5-min Rain = 0
KHA2 081731Z 21012KT 05/04 A3037 RMK A01 T00520041  RH  093%=      5-min Rain = 0
KHA2 081732Z 23014KT 05/04 A3037 RMK A01 T00520041  RH  093%=      5-min Rain = 0
KHA2 081733Z 22014KT 05/04 A3037 RMK A01 T00520041  RH  092%=      5-min Rain = 0
KHA2 081734Z 22013KT 05/04 A3037 RMK A01 T00520040  RH  092%=      5-min Rain = 0
KHA2 081735Z 22014KT 05/04 A3037 RMK A01 T00510039  RH  092%=      5-min Rain = 0
KHA2 081736Z 22012KT 05/04 A3037 RMK A01 T00510040  RH  093%=      5-min Rain = 0
KHA2 081737Z 22014KT 05/04 A3036 RMK A01 T00510040  RH  093%=      5-min Rain = 0
KHA2 081738Z 22014KT 05/04 A3036 RMK A01 T00520041  RH  093%=      5-min Rain = 0
KHA2 081739Z 22014KT 05/04 A3036 RMK A01 T00520041  RH  093%=      5-min Rain = 0
KHA2 081740Z 22015KT 05/04 A3036 RMK A01 T00520040  RH  092%=      5-min Rain = 0
KHA2 081741Z 22016KT 05/04 A3036 RMK A01 T00510039  RH  092%=      5-min Rain = 0
KHA2 081742Z 22014KT 05/04 A3036 RMK A01 T00500039  RH  092%=      5-min Rain = 0
KHA2 081743Z 22012KT 05/04 A3036 RMK A01 T00500039  RH  092%=      5-min Rain = 0
KHA2 081744Z 21011KT 05/04 A3036 RMK A01 T00510040  RH  093%=      5-min Rain = 0
KHA2 081745Z 21012KT 05/04 A3036 RMK A01 T00530042  RH  093%=      5-min Rain = 0
KHA2 081746Z 22015KT 05/04 A3036 RMK A01 T00540043  RH  093%=      5-min Rain = 0
KHA2 081747Z 22015KT 05/04 A3036 RMK A01 T00530041  RH  092%=      5-min Rain = 0
KHA2 081748Z 22015KT 05/04 A3036 RMK A01 T00530041  RH  092%=      5-min Rain = 0
KHA2 081749Z 22014KT 05/04 A3036 RMK A01 T00520039  RH  092%=      5-min Rain = 0
KHA2 081750Z 21012KT 05/04 A3036 RMK A01 T00520039  RH  092%=      5-min Rain = 0
KHA2 081751Z 23009KT 05/04 A3036 RMK A01 T00520040  RH  092%=      5-min Rain = 0
KHA2 081752Z 24013G18KT 05/04 A3036 RMK A01 T00540044  RH  093%=      5-min Rain = 0
KHA2 081753Z 24015KT 05/04 A3036 RMK A01 T00540042  RH  092%=      5-min Rain = 0
KHA2 081754Z 24013KT 05/04 A3036 RMK A01 T00540041  RH  091%=      5-min Rain = 0
KHA2 081755Z 23013KT 05/04 A3036 RMK A01 T00520039  RH  091%=      5-min Rain = 0
KHA2 081756Z 23013KT 05/04 A3036 RMK A01 T00520039  RH  091%=      5-min Rain = 0
KHA2 081757Z 22012KT 05/04 A3036 RMK A01 T00520039  RH  091%=      5-min Rain = 0
KHA2 081758Z 23011KT 05/04 A3036 RMK A01 T00520039  RH  091%=      5-min Rain = 0
KHA2 081759Z 22012KT 05/04 A3036 RMK A01 T00520039  RH  091%=      5-min Rain = 0
KHA2 081800Z 21011KT 05/04 A3036 RMK A01 T00520039  RH  091%=      5-min Rain = 0
KHA2 081801Z 22013KT 05/04 A3036 RMK A01 T00520040  RH  091%=      5-min Rain = 0
KHA2 081802Z 22011KT 05/04 A3036 RMK A01 T00530040  RH  091%=      5-min Rain = 0
KHA2 081803Z 22012KT 05/04 A3036 RMK A01 T00540042  RH  092%=      5-min Rain = 0
KHA2 081804Z 23011KT 05/04 A3036 RMK A01 T00540042  RH  091%=      5-min Rain = 0
KHA2 081805Z 22014KT 05/04 A3036 RMK A01 T00540041  RH  091%=      5-min Rain = 0
KHA2 081806Z 22012KT 05/04 A3036 RMK A01 T00540040  RH  091%=      5-min Rain = 0
KHA2 081807Z 22013KT 05/04 A3036 RMK A01 T00540041  RH  091%=      5-min Rain = 0
KHA2 081808Z 23013KT 05/04 A3036 RMK A01 T00540041  RH  091%=      5-min Rain = 0
KHA2 081809Z 23012KT 05/04 A3036 RMK A01 T00540040  RH  091%=      5-min Rain = 0
KHA2 081810Z 23011KT 05/04 A3036 RMK A01 T00540040  RH  091%=      5-min Rain = 0
KHA2 081816Z 24013KT 05/04 A3035 RMK A01 T00540041  RH  091%=      5-min Rain = 0
KHA2 081817Z 24012KT 06/04 A3035 RMK A01 T00550041  RH  091%=      5-min Rain = 0
KHA2 081818Z 24014KT 06/04 A3035 RMK A01 T00550042  RH  091%=      5-min Rain = 0
KHA2 081819Z 23014KT 06/04 A3035 RMK A01 T00560042  RH  091%=      5-min Rain = 0
KHA2 081820Z 23015KT 06/04 A3035 RMK A01 T00560041  RH  090%=      5-min Rain = 0
KHA2 081821Z 24013KT 06/04 A3035 RMK A01 T00550040  RH  090%=      5-min Rain = 0
KHA2 081822Z 24013KT 06/04 A3035 RMK A01 T00550041  RH  090%=      5-min Rain = 0
KHA2 081823Z 25012KT 06/04 A3035 RMK A01 T00560041  RH  090%=      5-min Rain = 0
KHA2 081824Z 24013KT 06/04 A3035 RMK A01 T00560041  RH  090%=      5-min Rain = 0
KHA2 081825Z 24012KT 06/04 A3035 RMK A01 T00550040  RH  090%=      5-min Rain = 0
KHA2 081826Z 23013KT 06/04 A3035 RMK A01 T00560042  RH  091%=      5-min Rain = 0
KHA2 081827Z 24011KT 06/04 A3034 RMK A01 T00570042  RH  090%=      5-min Rain = 0
KHA2 081828Z 24012KT 06/04 A3034 RMK A01 T00580043  RH  090%=      5-min Rain = 0
KHA2 081829Z 24013KT 06/04 A3034 RMK A01 T00580042  RH  090%=      5-min Rain = 0
KHA2 081830Z 23014KT 06/04 A3034 RMK A01 T00590043  RH  090%=      5-min Rain = 0
KHA2 081831Z 23013KT 06/04 A3034 RMK A01 T00570041  RH  089%=      5-min Rain = 0
KHA2 081832Z 24014KT 06/04 A3034 RMK A01 T00570040  RH  089%=      5-min Rain = 0
KHA2 081833Z 23012KT 06/04 A3034 RMK A01 T00560040  RH  089%=      5-min Rain = 0
KHA2 081834Z 24014KT 06/04 A3034 RMK A01 T00560040  RH  089%=      5-min Rain = 0
KHA2 081835Z 24015KT 06/04 A3034 RMK A01 T00570041  RH  089%=      5-min Rain = 0
KHA2 081836Z 24013KT 06/04 A3034 RMK A01 T00570041  RH  089%=      5-min Rain = 0
KHA2 081837Z 24010KT 06/04 A3034 RMK A01 T00570040  RH  089%=      5-min Rain = 0
KHA2 081838Z 24010KT 06/04 A3034 RMK A01 T00580043  RH  090%=      5-min Rain = 0
KHA2 081839Z 24012KT 06/04 A3033 RMK A01 T00590043  RH  090%=      5-min Rain = 0
KHA2 081840Z 24011KT 06/04 A3034 RMK A01 T00590043  RH  089%=      5-min Rain = 0
KHA2 081841Z 24012KT 06/04 A3033 RMK A01 T00600044  RH  089%=      5-min Rain = 0
KHA2 081842Z 24014KT 06/04 A3033 RMK A01 T00600043  RH  089%=      5-min Rain = 0
KHA2 081843Z 24014KT 06/04 A3033 RMK A01 T00590041  RH  089%=      5-min Rain = 0
KHA2 081844Z 24013KT 06/04 A3034 RMK A01 T00580042  RH  089%=      5-min Rain = 0
KHA2 081845Z 24014KT 06/04 A3034 RMK A01 T00570042  RH  090%=      5-min Rain = 0
KHA2 081846Z 24011KT 06/04 A3034 RMK A01 T00580042  RH  089%=      5-min Rain = 0
KHA2 081847Z 24011KT 06/04 A3034 RMK A01 T00580042  RH  090%=      5-min Rain = 0
KHA2 081848Z 22011KT 06/04 A3034 RMK A01 T00580043  RH  090%=      5-min Rain = 0
KHA2 081849Z 23011KT 06/04 A3033 RMK A01 T00580043  RH  090%=      5-min Rain = 0
KHA2 081850Z 25014KT 06/04 A3033 RMK A01 T00580042  RH  090%=      5-min Rain = 0
KHA2 081851Z 24012KT 06/04 A3033 RMK A01 T00580041  RH  089%=      5-min Rain = 0
KHA2 081852Z 24010KT 06/04 A3033 RMK A01 T00570041  RH  089%=      5-min Rain = 0
KHA2 081853Z 24009KT 06/04 A3033 RMK A01 T00580043  RH  090%=      5-min Rain = 0
KHA2 081854Z 22009KT 06/05 A3033 RMK A01 T00600045  RH  090%=      5-min Rain = 0
KHA2 081855Z 22011KT 06/05 A3033 RMK A01 T00640048  RH  090%=      5-min Rain = 0
KHA2 081856Z 23012KT 07/05 A3033 RMK A01 T00650047  RH  088%=      5-min Rain = 0
KHA2 081857Z 24011KT 07/05 A3033 RMK A01 T00650045  RH  087%=      5-min Rain = 0
KHA2 081858Z 24010KT 06/04 A3033 RMK A01 T00630042  RH  086%=      5-min Rain = 0
KHA2 081859Z 24010KT 06/04 A3033 RMK A01 T00620043  RH  087%=      5-min Rain = 0
KHA2 081900Z 23012KT 06/04 A3033 RMK A01 T00610042  RH  087%=      5-min Rain = 0
KHA2 081901Z 22011KT 06/04 A3033 RMK A01 T00610042  RH  088%=      5-min Rain = 0
KHA2 081902Z 23012KT 06/04 A3033 RMK A01 T00610043  RH  088%=      5-min Rain = 0
KHA2 081903Z 24012KT 06/04 A3033 RMK A01 T00620043  RH  088%=      5-min Rain = 0
KHA2 081904Z 23009KT 06/04 A3033 RMK A01 T00600041  RH  088%=      5-min Rain = 0
KHA2 081905Z 24010KT 06/04 A3033 RMK A01 T00600043  RH  089%=      5-min Rain = 0
KHA2 081906Z 25011KT 06/05 A3033 RMK A01 T00630046  RH  089%=      5-min Rain = 0
KHA2 081907Z 25010KT 06/04 A3032 RMK A01 T00620043  RH  088%=      5-min Rain = 0
KHA2 081908Z 23013KT 06/05 A3032 RMK A01 T00630045  RH  088%=      5-min Rain = 0
KHA2 081909Z 23015KT 06/04 A3032 RMK A01 T00630044  RH  088%=      5-min Rain = 0
KHA2 081910Z 22014KT 06/04 A3032 RMK A01 T00620042  RH  087%=      5-min Rain = 0
KHA2 081911Z 23012KT 06/04 A3032 RMK A01 T00610041  RH  087%=      5-min Rain = 0
KHA2 081912Z 22009KT 06/04 A3032 RMK A01 T00600041  RH  088%=      5-min Rain = 0
KHA2 081913Z 23010KT 06/04 A3032 RMK A01 T00610042  RH  088%=      5-min Rain = 0
KHA2 081914Z 23011KT 06/04 A3032 RMK A01 T00610043  RH  088%=      5-min Rain = 0
KHA2 081915Z 23011KT 06/05 A3032 RMK A01 T00630046  RH  088%=      5-min Rain = 0
KHA2 081916Z 24011KT 06/04 A3032 RMK A01 T00640044  RH  087%=      5-min Rain = 0
KHA2 081917Z 25010KT 06/04 A3032 RMK A01 T00630042  RH  087%=      5-min Rain = 0
KHA2 081918Z 25013KT 06/05 A3032 RMK A01 T00640045  RH  088%=      5-min Rain = 0
KHA2 081919Z 24011KT 07/04 A3032 RMK A01 T00650044  RH  087%=      5-min Rain = 0
KHA2 081920Z 24011KT 07/04 A3032 RMK A01 T00650044  RH  087%=      5-min Rain = 0
KHA2 081921Z 23009KT 06/04 A3032 RMK A01 T00630041  RH  086%=      5-min Rain = 0
KHA2 081922Z 24012KT 06/04 A3032 RMK A01 T00640044  RH  087%=      5-min Rain = 0
KHA2 081923Z 23013KT 07/04 A3032 RMK A01 T00650044  RH  086%=      5-min Rain = 0
KHA2 081924Z 24015KT 06/04 A3032 RMK A01 T00640042  RH  086%=      5-min Rain = 0
KHA2 081925Z 22013KT 06/04 A3032 RMK A01 T00640043  RH  086%=      5-min Rain = 0
KHA2 081926Z 22012KT 07/04 A3032 RMK A01 T00650043  RH  086%=      5-min Rain = 0
KHA2 081927Z 22014KT 07/04 A3032 RMK A01 T00650043  RH  086%=      5-min Rain = 0
KHA2 081928Z 23010KT 07/04 A3032 RMK A01 T00650043  RH  086%=      5-min Rain = 0
KHA2 081929Z 24010KT 07/05 A3032 RMK A01 T00660045  RH  086%=      5-min Rain = 0
KHA2 081930Z 23011KT 07/05 A3032 RMK A01 T00670046  RH  086%=      5-min Rain = 0
KHA2 081931Z 22011KT 07/05 A3032 RMK A01 T00680047  RH  086%=      5-min Rain = 0
KHA2 081932Z 22012KT 07/05 A3032 RMK A01 T00690046  RH  085%=      5-min Rain = 0
KHA2 081933Z 22013KT 07/04 A3031 RMK A01 T00680044  RH  085%=      5-min Rain = 0
KHA2 081934Z 22013KT 07/04 A3031 RMK A01 T00680044  RH  085%=      5-min Rain = 0
KHA2 081935Z 25011KT 07/04 A3031 RMK A01 T00660041  RH  084%=      5-min Rain = 0
KHA2 081936Z 24010KT 07/04 A3031 RMK A01 T00660043  RH  086%=      5-min Rain = 0
KHA2 081937Z 22010G15KT 07/05 A3031 RMK A01 T00680048  RH  087%=      5-min Rain = 0
KHA2 081938Z 23012KT 07/05 A3031 RMK A01 T00700047  RH  086%=      5-min Rain = 0
KHA2 081939Z 23012KT 07/04 A3031 RMK A01 T00680044  RH  085%=      5-min Rain = 0
KHA2 081940Z 23012KT 07/05 A3031 RMK A01 T00700047  RH  085%=      5-min Rain = 0
KHA2 081941Z 23011KT 07/05 A3031 RMK A01 T00700047  RH  085%=      5-min Rain = 0
KHA2 081942Z 23011KT 07/05 A3031 RMK A01 T00720049  RH  085%=      5-min Rain = 0
KHA2 081943Z 24011KT 07/05 A3031 RMK A01 T00730047  RH  084%=      5-min Rain = 0
KHA2 081944Z 24011KT 07/05 A3031 RMK A01 T00700045  RH  084%=      5-min Rain = 0
KHA2 081945Z 24009KT 07/04 A3031 RMK A01 T00690044  RH  084%=      5-min Rain = 0
KHA2 081946Z 24011KT 07/05 A3031 RMK A01 T00680045  RH  085%=      5-min Rain = 0
KHA2 081947Z 23015KT 07/05 A303 RMK A01 T00700047  RH  085%=      5-min Rain = 0
KHA2 081948Z 22016KT 07/05 A303 RMK A01 T00700045  RH  084%=      5-min Rain = 0
KHA2 081949Z 23012KT 07/04 A303 RMK A01 T00690043  RH  084%=      5-min Rain = 0
KHA2 081950Z 22013KT 07/05 A303 RMK A01 T00690046  RH  085%=      5-min Rain = 0
KHA2 081951Z 22012KT 07/05 A303 RMK A01 T00720048  RH  085%=      5-min Rain = 0
KHA2 081952Z 22012KT 07/05 A303 RMK A01 T00720046  RH  083%=      5-min Rain = 0
KHA2 081953Z 23013KT 07/05 A303 RMK A01 T00720047  RH  084%=      5-min Rain = 0
KHA2 081954Z 23013KT 07/05 A303 RMK A01 T00730047  RH  083%=      5-min Rain = 0
KHA2 081955Z 22015KT 07/05 A303 RMK A01 T00730046  RH  083%=      5-min Rain = 0
KHA2 081956Z 23011KT 07/05 A303 RMK A01 T00720046  RH  083%=      5-min Rain = 0
KHA2 081957Z 23011KT 07/05 A303 RMK A01 T00720047  RH  084%=      5-min Rain = 0
KHA2 081958Z 23012KT 07/05 A303 RMK A01 T00730048  RH  084%=      5-min Rain = 0
KHA2 081959Z 23014KT 08/05 A303 RMK A01 T00750050  RH  084%=      5-min Rain = 0
KHA2 082000Z 23010KT 07/05 A303 RMK A01 T00740047  RH  083%=      5-min Rain = 0
KHA2 082001Z 22012KT 07/05 A303 RMK A01 T00730046  RH  083%=      5-min Rain = 0
KHA2 082002Z 22012KT 07/05 A303 RMK A01 T00720046  RH  083%=      5-min Rain = 0
KHA2 082003Z 22014KT 07/05 A303 RMK A01 T00730048  RH  084%=      5-min Rain = 0
KHA2 082004Z 22012KT 08/05 A303 RMK A01 T00750049  RH  083%=      5-min Rain = 0
KHA2 082005Z 22010KT 08/05 A303 RMK A01 T00780051  RH  083%=      5-min Rain = 0
KHA2 082006Z 23010KT 08/05 A303 RMK A01 T00800052  RH  082%=      5-min Rain = 0
KHA2 082007Z 22013KT 08/05 A303 RMK A01 T00810051  RH  082%=      5-min Rain = 0
KHA2 082008Z 21014KT 08/05 A303 RMK A01 T00810049  RH  080%=      5-min Rain = 0
KHA2 082009Z 23013KT 08/05 A303 RMK A01 T00780046  RH  081%=      5-min Rain = 0
KHA2 082010Z 23010KT 08/05 A303 RMK A01 T00750045  RH  081%=      5-min Rain = 0
KHA2 082011Z 22010KT 07/05 A303 RMK A01 T00730046  RH  083%=      5-min Rain = 0
KHA2 082012Z 21011KT 07/05 A303 RMK A01 T00730047  RH  083%=      5-min Rain = 0
KHA2 082013Z 23012KT 07/05 A303 RMK A01 T00740048  RH  084%=      5-min Rain = 0
KHA2 082014Z 24013KT 08/05 A303 RMK A01 T00750048  RH  083%=      5-min Rain = 0
KHA2 082015Z 24014KT 08/05 A303 RMK A01 T00750048  RH  083%=      5-min Rain = 0
KHA2 082016Z 23012KT 08/05 A303 RMK A01 T00750047  RH  082%=      5-min Rain = 0
KHA2 082017Z 22012G17KT 07/05 A303 RMK A01 T00740045  RH  082%=      5-min Rain = 0
KHA2 082018Z 22013KT 08/05 A303 RMK A01 T00760049  RH  083%=      5-min Rain = 0
KHA2 082019Z 23012KT 08/05 A303 RMK A01 T00780050  RH  082%=      5-min Rain = 0
KHA2 082020Z 23011KT 08/05 A303 RMK A01 T00790049  RH  081%=      5-min Rain = 0
KHA2 082021Z 24011KT 08/05 A303 RMK A01 T00760045  RH  081%=      5-min Rain = 0
KHA2 082022Z 23013KT 08/05 A303 RMK A01 T00760048  RH  082%=      5-min Rain = 0
KHA2 082023Z 23014KT 08/05 A303 RMK A01 T00790050  RH  082%=      5-min Rain = 0
KHA2 082024Z 23011KT 08/05 A303 RMK A01 T00790049  RH  081%=      5-min Rain = 0
KHA2 082025Z 24012KT 08/05 A3029 RMK A01 T00790049  RH  081%=      5-min Rain = 0
KHA2 082026Z 24012KT 08/05 A3029 RMK A01 T00760046  RH  081%=      5-min Rain = 0
KHA2 082027Z 23011KT 08/05 A3029 RMK A01 T00760048  RH  082%=      5-min Rain = 0
KHA2 082028Z 23013KT 08/05 A3029 RMK A01 T00790051  RH  083%=      5-min Rain = 0
KHA2 082029Z 23014KT 08/05 A3029 RMK A01 T00810052  RH  082%=      5-min Rain = 0
KHA2 082030Z 23012KT 08/05 A3029 RMK A01 T00810049  RH  080%=      5-min Rain = 0
KHA2 082031Z 21013KT 08/05 A3029 RMK A01 T00800049  RH  081%=      5-min Rain = 0
KHA2 082032Z 22013KT 08/05 A3029 RMK A01 T00790049  RH  081%=      5-min Rain = 0
KHA2 082033Z 23009KT 08/05 A3029 RMK A01 T00780047  RH  081%=      5-min Rain = 0
KHA2 082034Z 22011KT 08/05 A3029 RMK A01 T00770048  RH  082%=      5-min Rain = 0
KHA2 082035Z 22012KT 08/05 A3029 RMK A01 T00800051  RH  082%=      5-min Rain = 0
KHA2 082036Z 22013KT 08/05 A3029 RMK A01 T00820051  RH  081%=      5-min Rain = 0
KHA2 082037Z 22014KT 08/05 A3029 RMK A01 T00830051  RH  080%=      5-min Rain = 0
KHA2 082038Z 23013KT 09/05 A3029 RMK A01 T00850052  RH  080%=      5-min Rain = 0
KHA2 082039Z 23013KT 08/05 A3029 RMK A01 T00840050  RH  079%=      5-min Rain = 0
KHA2 082040Z 22012KT 08/05 A3029 RMK A01 T00840051  RH  080%=      5-min Rain = 0
KHA2 082041Z 22012KT 08/05 A3029 RMK A01 T00840051  RH  080%=      5-min Rain = 0
KHA2 082042Z 21013KT 08/05 A3029 RMK A01 T00830051  RH  080%=      5-min Rain = 0
KHA2 082043Z 22010KT 08/05 A3029 RMK A01 T00810048  RH  080%=      5-min Rain = 0
KHA2 082044Z 22010KT 08/05 A3029 RMK A01 T00810050  RH  081%=      5-min Rain = 0
KHA2 082045Z 23013KT 09/06 A3029 RMK A01 T00850055  RH  081%=      5-min Rain = 0
KHA2 082046Z 24013KT 08/05 A3029 RMK A01 T00840050  RH  079%=      5-min Rain = 0
KHA2 082047Z 25012KT 08/05 A3029 RMK A01 T00820049  RH  080%=      5-min Rain = 0
KHA2 082048Z 25011KT 08/05 A3029 RMK A01 T00820049  RH  080%=      5-min Rain = 0
KHA2 082049Z 23012KT 08/05 A3029 RMK A01 T00840054  RH  081%=      5-min Rain = 0
KHA2 082050Z 23012KT 09/05 A3029 RMK A01 T00850052  RH  080%=      5-min Rain = 0
KHA2 082051Z 24013KT 08/05 A3029 RMK A01 T00830049  RH  079%=      5-min Rain = 0
KHA2 082052Z 24014KT 08/05 A3028 RMK A01 T00810049  RH  080%=      5-min Rain = 0
KHA2 082053Z 25013KT 08/05 A3028 RMK A01 T00810049  RH  080%=      5-min Rain = 0
KHA2 082054Z 24013KT 08/05 A3028 RMK A01 T00810050  RH  081%=      5-min Rain = 0
KHA2 082055Z 23013KT 08/05 A3028 RMK A01 T00830050  RH  080%=      5-min Rain = 0
KHA2 082056Z 23011KT 08/05 A3028 RMK A01 T00830051  RH  080%=      5-min Rain = 0
KHA2 082057Z 23014KT 09/05 A3028 RMK A01 T00860053  RH  080%=      5-min Rain = 0
KHA2 082058Z 24014KT 09/05 A3028 RMK A01 T00870052  RH  079%=      5-min Rain = 0
KHA2 082059Z 23014KT 09/05 A3028 RMK A01 T00880052  RH  078%=      5-min Rain = 0
KHA2 082100Z 22013KT 09/05 A3028 RMK A01 T00860051  RH  078%=      5-min Rain = 0
KHA2 082101Z 22012KT 09/05 A3028 RMK A01 T00850049  RH  078%=      5-min Rain = 0
KHA2 082102Z 23014KT 08/05 A3028 RMK A01 T00820048  RH  079%=      5-min Rain = 0
KHA2 082103Z 23012KT 08/05 A3028 RMK A01 T00810048  RH  080%=      5-min Rain = 0
KHA2 082104Z 24012KT 08/05 A3028 RMK A01 T00810050  RH  081%=      5-min Rain = 0
KHA2 082105Z 24015KT 08/05 A3028 RMK A01 T00830051  RH  080%=      5-min Rain = 0
KHA2 082106Z 24014KT 08/05 A3028 RMK A01 T00820049  RH  080%=      5-min Rain = 0
KHA2 082107Z 23014KT 08/05 A3028 RMK A01 T00810048  RH  080%=      5-min Rain = 0
KHA2 082108Z 24014KT 08/05 A3028 RMK A01 T00820051  RH  081%=      5-min Rain = 0
KHA2 082109Z 24013KT 08/05 A3028 RMK A01 T00830050  RH  080%=      5-min Rain = 0
KHA2 082110Z 23012KT 08/05 A3028 RMK A01 T00820050  RH  080%=      5-min Rain = 0
KHA2 082111Z 22014KT 08/05 A3028 RMK A01 T00820050  RH  080%=      5-min Rain = 0
KHA2 082112Z 22013KT 08/05 A3028 RMK A01 T00810048  RH  079%=      5-min Rain = 0
KHA2 082113Z 23016KT 08/05 A3028 RMK A01 T00810049  RH  080%=      5-min Rain = 0
KHA2 082114Z 24013KT 08/05 A3028 RMK A01 T00800048  RH  080%=      5-min Rain = 0
KHA2 082115Z 22012KT 08/05 A3028 RMK A01 T00800049  RH  081%=      5-min Rain = 0
KHA2 082116Z 22015KT 08/05 A3028 RMK A01 T00810051  RH  081%=      5-min Rain = 0
KHA2 082117Z 23014KT 08/05 A3028 RMK A01 T00830051  RH  080%=      5-min Rain = 0
KHA2 082118Z 23012KT 08/05 A3028 RMK A01 T00820049  RH  080%=      5-min Rain = 0
KHA2 082119Z 23012KT 08/05 A3028 RMK A01 T00830051  RH  080%=      5-min Rain = 0
KHA2 082120Z 24015KT 09/05 A3028 RMK A01 T00850052  RH  080%=      5-min Rain = 0
KHA2 082121Z 23013KT 09/05 A3028 RMK A01 T00850051  RH  079%=      5-min Rain = 0
KHA2 082122Z 23010KT 09/05 A3028 RMK A01 T00850051  RH  079%=      5-min Rain = 0
KHA2 082123Z 22012KT 09/05 A3028 RMK A01 T00870053  RH  079%=      5-min Rain = 0
KHA2 082124Z 25014KT 09/05 A3028 RMK A01 T00890052  RH  078%=      5-min Rain = 0
KHA2 082125Z 24014KT 09/05 A3028 RMK A01 T00890052  RH  077%=      5-min Rain = 0
KHA2 082126Z 25012KT 09/05 A3027 RMK A01 T00900051  RH  077%=      5-min Rain = 0
KHA2 082127Z 24012KT 09/05 A3028 RMK A01 T00890051  RH  077%=      5-min Rain = 0
KHA2 082128Z 22013G19KT 09/05 A3028 RMK A01 T00880050  RH  077%=      5-min Rain = 0
KHA2 082129Z 23016KT 09/05 A3028 RMK A01 T00880051  RH  078%=      5-min Rain = 0
KHA2 082130Z 23014KT 09/05 A3028 RMK A01 T00860050  RH  078%=      5-min Rain = 0
KHA2 082131Z 24014KT 08/05 A3028 RMK A01 T00830047  RH  078%=      5-min Rain = 0
KHA2 082132Z 24013KT 08/05 A3028 RMK A01 T00810047  RH  080%=      5-min Rain = 0
KHA2 082133Z 24011KT 08/05 A3028 RMK A01 T00800049  RH  081%=      5-min Rain = 0
KHA2 082134Z 23011KT 08/05 A3027 RMK A01 T00810050  RH  081%=      5-min Rain = 0
KHA2 082135Z 23017KT 08/05 A3027 RMK A01 T00840051  RH  080%=      5-min Rain = 0
KHA2 082136Z 23015KT 08/05 A3027 RMK A01 T00840051  RH  079%=      5-min Rain = 0
KHA2 082137Z 24015KT 09/05 A3027 RMK A01 T00850051  RH  079%=      5-min Rain = 0
KHA2 082138Z 24013KT 08/05 A3027 RMK A01 T00820046  RH  078%=      5-min Rain = 0
KHA2 082139Z 23014KT 08/05 A3027 RMK A01 T00790047  RH  080%=      5-min Rain = 0
KHA2 082140Z 22016KT 08/05 A3027 RMK A01 T00800049  RH  081%=      5-min Rain = 0
KHA2 082141Z 23015KT 08/05 A3027 RMK A01 T00810049  RH  080%=      5-min Rain = 0
KHA2 082142Z 24015KT 08/05 A3027 RMK A01 T00810048  RH  080%=      5-min Rain = 0
KHA2 082143Z 24014KT 08/05 A3027 RMK A01 T00800048  RH  080%=      5-min Rain = 0
KHA2 082144Z 25014KT 08/05 A3027 RMK A01 T00800048  RH  080%=      5-min Rain = 0
KHA2 082145Z 24013KT 08/05 A3027 RMK A01 T00790048  RH  080%=      5-min Rain = 0
KHA2 082146Z 24010KT 08/05 A3027 RMK A01 T00800050  RH  081%=      5-min Rain = 0
KHA2 082147Z 23014KT 08/05 A3027 RMK A01 T00810051  RH  081%=      5-min Rain = 0
KHA2 082148Z 22014KT 08/05 A3027 RMK A01 T00820050  RH  080%=      5-min Rain = 0
KHA2 082149Z 24014KT 08/05 A3027 RMK A01 T00810049  RH  080%=      5-min Rain = 0
KHA2 082150Z 24015KT 08/05 A3027 RMK A01 T00830051  RH  080%=      5-min Rain = 0
KHA2 082151Z 24016KT 08/05 A3027 RMK A01 T00830050  RH  080%=      5-min Rain = 0
KHA2 082152Z 24016KT 08/05 A3027 RMK A01 T00800047  RH  080%=      5-min Rain = 0
KHA2 082153Z 24014KT 08/05 A3027 RMK A01 T00770046  RH  081%=      5-min Rain = 0
KHA2 082154Z 23014KT 08/05 A3027 RMK A01 T00760047  RH  082%=      5-min Rain = 0
KHA2 082155Z 23013KT 08/05 A3027 RMK A01 T00760048  RH  082%=      5-min Rain = 0
KHA2 082156Z 23013KT 08/05 A3027 RMK A01 T00760047  RH  082%=      5-min Rain = 0
KHA2 082157Z 24012KT 08/05 A3027 RMK A01 T00760048  RH  083%=      5-min Rain = 0
KHA2 082158Z 24012KT 08/05 A3027 RMK A01 T00750048  RH  083%=      5-min Rain = 0
KHA2 082159Z 24012KT 08/05 A3027 RMK A01 T00760050  RH  083%=      5-min Rain = 0
KHA2 082200Z 23011KT 08/05 A3027 RMK A01 T00780051  RH  083%=      5-min Rain = 0
KHA2 082201Z 23012KT 08/05 A3027 RMK A01 T00790051  RH  082%=      5-min Rain = 0
KHA2 082202Z 23014KT 08/05 A3027 RMK A01 T00800051  RH  082%=      5-min Rain = 0
KHA2 082203Z 23012KT 08/05 A3027 RMK A01 T00800050  RH  081%=      5-min Rain = 0
KHA2 082204Z 23012KT 08/05 A3027 RMK A01 T00800050  RH  082%=      5-min Rain = 0
KHA2 082205Z 23015KT 08/05 A3027 RMK A01 T00790050  RH  081%=      5-min Rain = 0
KHA2 082206Z 24012KT 08/05 A3027 RMK A01 T00790049  RH  081%=      5-min Rain = 0
KHA2 082207Z 24014KT 08/05 A3027 RMK A01 T00790049  RH  082%=      5-min Rain = 0
KHA2 082208Z 24014KT 08/05 A3027 RMK A01 T00790049  RH  082%=      5-min Rain = 0
KHA2 082209Z 25013KT 08/05 A3027 RMK A01 T00790049  RH  081%=      5-min Rain = 0
KHA2 082210Z 24013KT 08/05 A3027 RMK A01 T00790049  RH  081%=      5-min Rain = 0
KHA2 082211Z 25012KT 08/05 A3027 RMK A01 T00800049  RH  081%=      5-min Rain = 0
KHA2 082212Z 24011KT 08/05 A3027 RMK A01 T00800050  RH  082%=      5-min Rain = 0
KHA2 082213Z 24012KT 08/05 A3027 RMK A01 T00790049  RH  082%=      5-min Rain = 0
KHA2 082214Z 24012KT 08/05 A3027 RMK A01 T00770047  RH  082%=      5-min Rain = 0
KHA2 082215Z 24012KT 08/05 A3027 RMK A01 T00750047  RH  082%=      5-min Rain = 0
KHA2 082216Z 23009KT 08/05 A3027 RMK A01 T00750048  RH  083%=      5-min Rain = 0
KHA2 082217Z 24011KT 08/05 A3027 RMK A01 T00760049  RH  083%=      5-min Rain = 0
KHA2 082218Z 24009KT 08/05 A3027 RMK A01 T00770050  RH  083%=      5-min Rain = 0
KHA2 082219Z 25010KT 08/05 A3027 RMK A01 T00780050  RH  083%=      5-min Rain = 0
KHA2 082220Z 25010KT 08/05 A3027 RMK A01 T00780050  RH  083%=      5-min Rain = 0
KHA2 082221Z 25011KT 08/05 A3027 RMK A01 T00780049  RH  082%=      5-min Rain = 0
KHA2 082222Z 24012KT 08/05 A3027 RMK A01 T00780050  RH  082%=      5-min Rain = 0
KHA2 082223Z 24010KT 08/05 A3027 RMK A01 T00780050  RH  082%=      5-min Rain = 0
KHA2 082224Z 25010KT 08/05 A3027 RMK A01 T00780050  RH  082%=      5-min Rain = 0
KHA2 082225Z 24010KT 08/05 A3027 RMK A01 T00800051  RH  082%=      5-min Rain = 0
KHA2 082226Z 25012KT 08/05 A3027 RMK A01 T00800050  RH  081%=      5-min Rain = 0
KHA2 082227Z 24012KT 08/05 A3027 RMK A01 T00810050  RH  081%=      5-min Rain = 0
KHA2 082228Z 24011KT 08/05 A3027 RMK A01 T00800050  RH  081%=      5-min Rain = 0
KHA2 082229Z 25010KT 08/05 A3027 RMK A01 T00800050  RH  082%=      5-min Rain = 0
KHA2 082230Z 24008KT 08/05 A3027 RMK A01 T00800050  RH  082%=      5-min Rain = 0
KHA2 082231Z 23011KT 08/05 A3027 RMK A01 T00810051  RH  082%=      5-min Rain = 0
KHA2 082232Z 23012KT 08/05 A3027 RMK A01 T00820051  RH  081%=      5-min Rain = 0
KHA2 082233Z 24013KT 08/05 A3027 RMK A01 T00810050  RH  081%=      5-min Rain = 0
KHA2 082234Z 25010KT 08/05 A3027 RMK A01 T00810050  RH  081%=      5-min Rain = 0
KHA2 082235Z 25010KT 08/05 A3027 RMK A01 T00800050  RH  081%=      5-min Rain = 0
KHA2 082236Z 25010KT 08/05 A3027 RMK A01 T00800050  RH  081%=      5-min Rain = 0
KHA2 082237Z 24009KT 08/05 A3027 RMK A01 T00800051  RH  081%=      5-min Rain = 0
KHA2 082238Z 25010KT 08/05 A3027 RMK A01 T00820052  RH  082%=      5-min Rain = 0
KHA2 082239Z 24011KT 08/05 A3027 RMK A01 T00830052  RH  081%=      5-min Rain = 0
KHA2 082240Z 24012KT 08/05 A3027 RMK A01 T00830051  RH  080%=      5-min Rain = 0
KHA2 082241Z 24012KT 08/05 A3027 RMK A01 T00820049  RH  080%=      5-min Rain = 0
KHA2 082242Z 24011KT 08/05 A3027 RMK A01 T00800049  RH  081%=      5-min Rain = 0
KHA2 082243Z 24012KT 08/05 A3027 RMK A01 T00790049  RH  081%=      5-min Rain = 0
KHA2 082244Z 24011KT 08/05 A3027 RMK A01 T00780048  RH  081%=      5-min Rain = 0
KHA2 082245Z 24009KT 08/05 A3027 RMK A01 T00780049  RH  082%=      5-min Rain = 0
KHA2 082246Z 24011KT 08/05 A3027 RMK A01 T00790050  RH  082%=      5-min Rain = 0
KHA2 082247Z 24012KT 08/05 A3027 RMK A01 T00790050  RH  082%=      5-min Rain = 0
KHA2 082248Z 24012KT 08/05 A3027 RMK A01 T00790050  RH  082%=      5-min Rain = 0
KHA2 082249Z 24011KT 08/05 A3027 RMK A01 T00780049  RH  082%=      5-min Rain = 0
KHA2 082250Z 24012KT 08/05 A3027 RMK A01 T00780049  RH  082%=      5-min Rain = 0
KHA2 082251Z 23011KT 08/05 A3027 RMK A01 T00780049  RH  082%=      5-min Rain = 0
KHA2 082252Z 24010KT 08/05 A3027 RMK A01 T00790050  RH  082%=      5-min Rain = 0
KHA2 082253Z 24012KT 08/05 A3027 RMK A01 T00800051  RH  082%=      5-min Rain = 0
KHA2 082254Z 24011KT 08/05 A3027 RMK A01 T00790050  RH  082%=      5-min Rain = 0
KHA2 082255Z 24010KT 08/05 A3027 RMK A01 T00800050  RH  082%=      5-min Rain = 0
KHA2 082256Z 24010KT 08/05 A3027 RMK A01 T00800051  RH  082%=      5-min Rain = 0
KHA2 082257Z 23010KT 08/05 A3027 RMK A01 T00800051  RH  081%=      5-min Rain = 0
KHA2 082258Z 24011KT 08/05 A3027 RMK A01 T00800050  RH  081%=      5-min Rain = 0
KHA2 082259Z 24012KT 08/05 A3027 RMK A01 T00800051  RH  081%=      5-min Rain = 0
KHA2 082300Z 24010KT 08/05 A3027 RMK A01 T00790050  RH  082%=      5-min Rain = 0
KHA2 082301Z 24011KT 08/05 A3027 RMK A01 T00790050  RH  082%=      5-min Rain = 0
KHA2 082302Z 24010KT 08/05 A3027 RMK A01 T00790050  RH  082%=      5-min Rain = 0
KHA2 082303Z 24011KT 08/05 A3027 RMK A01 T00790050  RH  082%=      5-min Rain = 0
KHA2 082304Z 24011KT 08/05 A3027 RMK A01 T00790050  RH  082%=      5-min Rain = 0
KHA2 082305Z 23010KT 08/05 A3027 RMK A01 T00780050  RH  082%=      5-min Rain = 0
KHA2 082306Z 23009KT 08/05 A3027 RMK A01 T00780050  RH  082%=      5-min Rain = 0
KHA2 082307Z 24010KT 08/05 A3027 RMK A01 T00780050  RH  082%=      5-min Rain = 0
KHA2 082308Z 24010KT 08/05 A3027 RMK A01 T00780050  RH  082%=      5-min Rain = 0
KHA2 082309Z 24011KT 08/05 A3027 RMK A01 T00780051  RH  083%=      5-min Rain = 0
KHA2 082310Z 24011KT 08/05 A3027 RMK A01 T00780050  RH  083%=      5-min Rain = 0
KHA2 082311Z 24011KT 08/05 A3027 RMK A01 T00780051  RH  083%=      5-min Rain = 0
KHA2 082312Z 24010KT 08/05 A3027 RMK A01 T00780051  RH  083%=      5-min Rain = 0
KHA2 082313Z 24012KT 08/05 A3027 RMK A01 T00780051  RH  083%=      5-min Rain = 0
KHA2 082314Z 25010KT 08/05 A3027 RMK A01 T00780050  RH  082%=      5-min Rain = 0
KHA2 082315Z 24009KT 08/05 A3027 RMK A01 T00780051  RH  083%=      5-min Rain = 0
KHA2 082316Z 23011KT 08/05 A3027 RMK A01 T00780050  RH  083%=      5-min Rain = 0
KHA2 082317Z 24009KT 08/05 A3027 RMK A01 T00770050  RH  083%=      5-min Rain = 0
KHA2 082318Z 23009KT 08/05 A3027 RMK A01 T00780050  RH  083%=      5-min Rain = 0
KHA2 082319Z 24008KT 08/05 A3027 RMK A01 T00770050  RH  083%=      5-min Rain = 0
KHA2 082320Z 23008KT 08/05 A3027 RMK A01 T00770050  RH  083%=      5-min Rain = 0
KHA2 082321Z 23009KT 08/05 A3027 RMK A01 T00760050  RH  083%=      5-min Rain = 0
KHA2 082322Z 23008KT 08/05 A3027 RMK A01 T00760050  RH  083%=      5-min Rain = 0
KHA2 082323Z 23008KT 08/05 A3027 RMK A01 T00760049  RH  083%=      5-min Rain = 0
KHA2 082324Z 23009KT 08/05 A3027 RMK A01 T00760050  RH  084%=      5-min Rain = 0
KHA2 082325Z 23008KT 08/05 A3027 RMK A01 T00760050  RH  084%=      5-min Rain = 0
KHA2 082326Z 23010KT 08/05 A3027 RMK A01 T00750049  RH  084%=      5-min Rain = 0
KHA2 082327Z 23009KT 08/05 A3027 RMK A01 T00750050  RH  084%=      5-min Rain = 0
KHA2 082328Z 23010KT 08/05 A3027 RMK A01 T00750050  RH  084%=      5-min Rain = 0
KHA2 082329Z 23009KT 08/05 A3027 RMK A01 T00750050  RH  084%=      5-min Rain = 0
KHA2 082330Z 23008KT 07/05 A3027 RMK A01 T00740049  RH  084%=      5-min Rain = 0
KHA2 082331Z 23008KT 07/05 A3027 RMK A01 T00730049  RH  085%=      5-min Rain = 0
KHA2 082332Z 23008KT 07/05 A3027 RMK A01 T00730049  RH  085%=      5-min Rain = 0
KHA2 082333Z 22008KT 07/05 A3027 RMK A01 T00730049  RH  085%=      5-min Rain = 0
KHA2 082334Z 22008KT 07/05 A3027 RMK A01 T00720049  RH  085%=      5-min Rain = 0
KHA2 082335Z 22008KT 07/05 A3027 RMK A01 T00710049  RH  085%=      5-min Rain = 0
KHA2 082336Z 23008KT 07/05 A3027 RMK A01 T00710049  RH  086%=      5-min Rain = 0
KHA2 082337Z 22008KT 07/05 A3027 RMK A01 T00700048  RH  086%=      5-min Rain = 0
KHA2 082338Z 22008KT 07/05 A3027 RMK A01 T00690048  RH  086%=      5-min Rain = 0
KHA2 082339Z 23008KT 07/05 A3027 RMK A01 T00690048  RH  086%=      5-min Rain = 0
KHA2 082340Z 22008KT 07/05 A3027 RMK A01 T00680047  RH  087%=      5-min Rain = 0
KHA2 082341Z 22008KT 07/05 A3027 RMK A01 T00680048  RH  087%=      5-min Rain = 0
KHA2 082342Z 22008KT 07/05 A3027 RMK A01 T00670048  RH  087%=      5-min Rain = 0
KHA2 082343Z 22008KT 07/05 A3027 RMK A01 T00670047  RH  087%=      5-min Rain = 0
KHA2 082344Z 22008KT 07/05 A3027 RMK A01 T00660047  RH  087%=      5-min Rain = 0
KHA2 082345Z 22009KT 07/05 A3027 RMK A01 T00650046  RH  088%=      5-min Rain = 0
KHA2 082346Z 22008KT 07/05 A3027 RMK A01 T00650047  RH  088%=      5-min Rain = 0
KHA2 082347Z 22009KT 07/05 A3027 RMK A01 T00650047  RH  088%=      5-min Rain = 0
KHA2 082348Z 22009KT 06/05 A3027 RMK A01 T00640046  RH  088%=      5-min Rain = 0
KHA2 082349Z 22009KT 06/05 A3027 RMK A01 T00640047  RH  089%=      5-min Rain = 0
KHA2 082350Z 22009KT 06/05 A3027 RMK A01 T00640047  RH  089%=      5-min Rain = 0
KHA2 082351Z 22008KT 06/05 A3027 RMK A01 T00630046  RH  089%=      5-min Rain = 0
KHA2 082352Z 22009KT 06/05 A3027 RMK A01 T00630046  RH  089%=      5-min Rain = 0
KHA2 082353Z 22008KT 06/05 A3027 RMK A01 T00620046  RH  089%=      5-min Rain = 0
KHA2 082354Z 22008KT 06/05 A3027 RMK A01 T00610045  RH  089%=      5-min Rain = 0
KHA2 082355Z 22008KT 06/05 A3027 RMK A01 T00610045  RH  089%=      5-min Rain = 0
KHA2 082356Z 22007KT 06/04 A3027 RMK A01 T00600044  RH  090%=      5-min Rain = 0
KHA2 082357Z 22007KT 06/04 A3027 RMK A01 T00590044  RH  090%=      5-min Rain = 0
KHA2 082358Z 22007KT 06/04 A3027 RMK A01 T00580043  RH  090%=      5-min Rain = 0
KHA2 082359Z 22007KT 06/04 A3027 RMK A01 T00570042  RH  090%=      5-min Rain = 0
KHA2 090000Z 22008KT 06/04 A3027 RMK A01 T00570043  RH  090%=      5-min Rain = 0
KHA2 090001Z 22008KT 06/04 A3027 RMK A01 T00570042  RH  091%=      5-min Rain = 0
KHA2 090002Z 22008KT 06/04 A3027 RMK A01 T00560042  RH  091%=      5-min Rain = 0
KHA2 090003Z 22008KT 06/04 A3027 RMK A01 T00550041  RH  091%=      5-min Rain = 0
KHA2 090004Z 22008KT 05/04 A3027 RMK A01 T00540041  RH  091%=      5-min Rain = 0
KHA2 090005Z 22008KT 06/04 A3027 RMK A01 T00550042  RH  091%=      5-min Rain = 0
KHA2 090006Z 22008KT 05/04 A3027 RMK A01 T00540041  RH  091%=      5-min Rain = 0
KHA2 090007Z 22008KT 05/04 A3027 RMK A01 T00540041  RH  092%=      5-min Rain = 0
KHA2 090008Z 22008KT 05/04 A3027 RMK A01 T00540042  RH  092%=      5-min Rain = 0
KHA2 090009Z 22008KT 05/04 A3027 RMK A01 T00530041  RH  092%=      5-min Rain = 0
KHA2 090010Z 22008KT 05/04 A3027 RMK A01 T00530041  RH  092%=      5-min Rain = 0
KHA2 090011Z 22008KT 05/04 A3027 RMK A01 T00530041  RH  092%=      5-min Rain = 0
KHA2 090012Z 22008KT 05/04 A3027 RMK A01 T00530041  RH  092%=      5-min Rain = 0
KHA2 090013Z 22008KT 05/04 A3027 RMK A01 T00530041  RH  092%=      5-min Rain = 0
KHA2 090014Z 22009KT 05/04 A3027 RMK A01 T00520041  RH  092%=      5-min Rain = 0
KHA2 090015Z 22008KT 05/04 A3027 RMK A01 T00520041  RH  092%=      5-min Rain = 0
KHA2 090016Z 22008KT 05/04 A3027 RMK A01 T00520041  RH  093%=      5-min Rain = 0
KHA2 090017Z 22008KT 05/04 A3027 RMK A01 T00520041  RH  093%=      5-min Rain = 0
KHA2 090018Z 22009KT 05/04 A3027 RMK A01 T00520041  RH  092%=      5-min Rain = 0
KHA2 090019Z 22009KT 05/04 A3027 RMK A01 T00520041  RH  093%=      5-min Rain = 0
KHA2 090020Z 22008KT 05/04 A3027 RMK A01 T00520041  RH  093%=      5-min Rain = 0
KHA2 090021Z 22009KT 05/04 A3027 RMK A01 T00520041  RH  093%=      5-min Rain = 0
KHA2 090022Z 22009KT 05/04 A3027 RMK A01 T00520041  RH  093%=      5-min Rain = 0
KHA2 090023Z 22009KT 05/04 A3027 RMK A01 T00520041  RH  093%=      5-min Rain = 0
KHA2 090024Z 22009KT 05/04 A3027 RMK A01 T00520042  RH  093%=      5-min Rain = 0
KHA2 090025Z 22009KT 05/04 A3027 RMK A01 T00530043  RH  093%=      5-min Rain = 0
KHA2 090026Z 22009KT 05/04 A3027 RMK A01 T00530043  RH  093%=      5-min Rain = 0
KHA2 090027Z 22009KT 05/04 A3027 RMK A01 T00530042  RH  093%=      5-min Rain = 0
KHA2 090028Z 22009KT 05/04 A3027 RMK A01 T00530042  RH  093%=      5-min Rain = 0
KHA2 090029Z 22009KT 05/04 A3027 RMK A01 T00530042  RH  093%=      5-min Rain = 0
KHA2 090030Z 22009KT 05/04 A3027 RMK A01 T00530042  RH  093%=      5-min Rain = 0
KHA2 090031Z 22008KT 05/04 A3027 RMK A01 T00520042  RH  093%=      5-min Rain = 0
KHA2 090032Z 22009KT 05/04 A3027 RMK A01 T00530042  RH  093%=      5-min Rain = 0
KHA2 090033Z 22009KT 05/04 A3027 RMK A01 T00520042  RH  093%=      5-min Rain = 0
KHA2 090034Z 22008KT 05/04 A3027 RMK A01 T00520041  RH  093%=      5-min Rain = 0
KHA2 090035Z 22008KT 05/04 A3027 RMK A01 T00510041  RH  093%=      5-min Rain = 0
KHA2 090036Z 22008KT 05/04 A3027 RMK A01 T00510041  RH  093%=      5-min Rain = 0
KHA2 090037Z 22008KT 05/04 A3027 RMK A01 T00500040  RH  093%=      5-min Rain = 0
KHA2 090038Z 22008KT 05/04 A3027 RMK A01 T00490039  RH  093%=      5-min Rain = 0
KHA2 090039Z 22009KT 05/04 A3027 RMK A01 T00490038  RH  093%=      5-min Rain = 0
KHA2 090040Z 22008KT 05/04 A3027 RMK A01 T00480038  RH  093%=      5-min Rain = 0
KHA2 090041Z 22008KT 05/04 A3027 RMK A01 T00480038  RH  093%=      5-min Rain = 0
KHA2 090042Z 23008KT 05/04 A3027 RMK A01 T00480038  RH  093%=      5-min Rain = 0
KHA2 090043Z 22009KT 05/04 A3027 RMK A01 T00480038  RH  094%=      5-min Rain = 0
KHA2 090044Z 23009KT 05/04 A3027 RMK A01 T00470038  RH  094%=      5-min Rain = 0
KHA2 090045Z 22008KT 05/04 A3027 RMK A01 T00470038  RH  094%=      5-min Rain = 0
KHA2 090046Z 22009KT 05/04 A3027 RMK A01 T00470038  RH  094%=      5-min Rain = 0
KHA2 090047Z 22009KT 05/04 A3027 RMK A01 T00470038  RH  094%=      5-min Rain = 0
KHA2 090048Z 22008KT 05/04 A3027 RMK A01 T00460037  RH  094%=      5-min Rain = 0
KHA2 090049Z 22008KT 05/04 A3027 RMK A01 T00460037  RH  094%=      5-min Rain = 0
KHA2 090050Z 22009KT 05/04 A3027 RMK A01 T00450037  RH  094%=      5-min Rain = 0
KHA2 090051Z 22009KT 05/04 A3027 RMK A01 T00450037  RH  094%=      5-min Rain = 0
KHA2 090052Z 22009KT 05/04 A3027 RMK A01 T00450037  RH  094%=      5-min Rain = 0
KHA2 090053Z 22008KT 05/04 A3027 RMK A01 T00450037  RH  094%=      5-min Rain = 0
KHA2 090054Z 22008KT 05/04 A3027 RMK A01 T00450037  RH  095%=      5-min Rain = 0
KHA2 090055Z 22009KT 05/04 A3027 RMK A01 T00450037  RH  095%=      5-min Rain = 0
KHA2 090056Z 23009KT 04/04 A3027 RMK A01 T00440037  RH  095%=      5-min Rain = 0
KHA2 090057Z 23009KT 04/04 A3027 RMK A01 T00440036  RH  095%=      5-min Rain = 0
KHA2 090058Z 23009KT 04/04 A3027 RMK A01 T00440036  RH  095%=      5-min Rain = 0
KHA2 090059Z 23009KT 04/04 A3027 RMK A01 T00440036  RH  095%=      5-min Rain = 0
KHA2 090100Z 23009KT 04/04 A3027 RMK A01 T00440036  RH  095%=      5-min Rain = 0
KHA2 090101Z 23009KT 04/04 A3027 RMK A01 T00440037  RH  095%=      5-min Rain = 0
KHA2 090102Z 23009KT 04/04 A3027 RMK A01 T00440037  RH  095%=      5-min Rain = 0
KHA2 090103Z 23009KT 04/04 A3027 RMK A01 T00430036  RH  095%=      5-min Rain = 0
KHA2 090104Z 23010KT 04/04 A3027 RMK A01 T00430036  RH  095%=      5-min Rain = 0
KHA2 090105Z 23009KT 04/04 A3027 RMK A01 T00420035  RH  095%=      5-min Rain = 0
KHA2 090106Z 23009KT 04/04 A3027 RMK A01 T00420035  RH  095%=      5-min Rain = 0
KHA2 090107Z 23009KT 04/04 A3027 RMK A01 T00420035  RH  095%=      5-min Rain = 0
KHA2 090108Z 23009KT 04/04 A3027 RMK A01 T00420035  RH  095%=      5-min Rain = 0
KHA2 090109Z 23009KT 04/03 A3027 RMK A01 T00410034  RH  095%=      5-min Rain = 0
KHA2 090110Z 23009KT 04/03 A3027 RMK A01 T00400033  RH  095%=      5-min Rain = 0
KHA2 090111Z 23009KT 04/03 A3027 RMK A01 T00400032  RH  095%=      5-min Rain = 0
KHA2 090112Z 23009KT 04/03 A3028 RMK A01 T00400032  RH  095%=      5-min Rain = 0
KHA2 090113Z 23009KT 04/03 A3028 RMK A01 T00400032  RH  095%=      5-min Rain = 0
KHA2 090114Z 23009KT 04/03 A3028 RMK A01 T00390032  RH  095%=      5-min Rain = 0
KHA2 090115Z 23009KT 04/03 A3028 RMK A01 T00390032  RH  095%=      5-min Rain = 0
KHA2 090116Z 22009KT 04/03 A3028 RMK A01 T00390032  RH  095%=      5-min Rain = 0
KHA2 090117Z 22008KT 04/03 A3028 RMK A01 T00380032  RH  095%=      5-min Rain = 0
KHA2 090118Z 23008KT 04/03 A3027 RMK A01 T00380031  RH  095%=      5-min Rain = 0
KHA2 090119Z 23008KT 04/03 A3027 RMK A01 T00370030  RH  095%=      5-min Rain = 0
KHA2 090120Z 23008KT 04/03 A3027 RMK A01 T00360029  RH  095%=      5-min Rain = 0
KHA2 090121Z 23008KT 04/03 A3027 RMK A01 T00350028  RH  095%=      5-min Rain = 0
KHA2 090122Z 23008KT 04/03 A3027 RMK A01 T00350028  RH  095%=      5-min Rain = 0
KHA2 090123Z 23008KT 04/03 A3027 RMK A01 T00350029  RH  096%=      5-min Rain = 0
KHA2 090124Z 23008KT 04/03 A3027 RMK A01 T00350029  RH  096%=      5-min Rain = 0
KHA2 090125Z 23007KT 04/03 A3027 RMK A01 T00350029  RH  096%=      5-min Rain = 0
KHA2 090126Z 23007KT 04/03 A3027 RMK A01 T00350029  RH  096%=      5-min Rain = 0
KHA2 090127Z 23007KT 04/03 A3027 RMK A01 T00350029  RH  096%=      5-min Rain = 0
KHA2 090128Z 23008KT 04/03 A3027 RMK A01 T00350029  RH  096%=      5-min Rain = 0
KHA2 090129Z 23008KT 04/03 A3027 RMK A01 T00350029  RH  096%=      5-min Rain = 0
KHA2 090130Z 23008KT 03/03 A3027 RMK A01 T00340028  RH  096%=      5-min Rain = 0
KHA2 090131Z 23008KT 03/03 A3027 RMK A01 T00340028  RH  096%=      5-min Rain = 0
KHA2 090132Z 23008KT 03/03 A3027 RMK A01 T00330028  RH  096%=      5-min Rain = 0
KHA2 090133Z 23008KT 03/03 A3027 RMK A01 T00330028  RH  096%=      5-min Rain = 0
KHA2 090134Z 24008KT 03/03 A3027 RMK A01 T00330028  RH  096%=      5-min Rain = 0
KHA2 090135Z 24008KT 03/03 A3027 RMK A01 T00340028  RH  096%=      5-min Rain = 0
KHA2 090136Z 24008KT 04/03 A3027 RMK A01 T00350029  RH  096%=      5-min Rain = 0
KHA2 090137Z 24008KT 04/03 A3027 RMK A01 T00350030  RH  097%=      5-min Rain = 0
KHA2 090138Z 24008KT 04/03 A3027 RMK A01 T00350030  RH  097%=      5-min Rain = 0
KHA2 090139Z 24008KT 04/03 A3027 RMK A01 T00350030  RH  096%=      5-min Rain = 0
KHA2 090140Z 24009KT 04/03 A3027 RMK A01 T00350030  RH  097%=      5-min Rain = 0
KHA2 090141Z 24008KT 04/03 A3027 RMK A01 T00360031  RH  097%=      5-min Rain = 0
KHA2 090142Z 24008KT 04/03 A3027 RMK A01 T00360032  RH  097%=      5-min Rain = 0
KHA2 090143Z 24008KT 04/03 A3027 RMK A01 T00370032  RH  097%=      5-min Rain = 0
KHA2 090144Z 24008KT 04/03 A3027 RMK A01 T00360031  RH  096%=      5-min Rain = 0
KHA2 090145Z 24009KT 04/03 A3027 RMK A01 T00360031  RH  096%=      5-min Rain = 0
KHA2 090146Z 24009KT 04/03 A3027 RMK A01 T00360031  RH  096%=      5-min Rain = 0
KHA2 090147Z 24009KT 04/03 A3027 RMK A01 T00360030  RH  096%=      5-min Rain = 0
KHA2 090148Z 24008KT 04/03 A3027 RMK A01 T00350030  RH  096%=      5-min Rain = 0
KHA2 090149Z 23008KT 04/03 A3027 RMK A01 T00350030  RH  096%=      5-min Rain = 0
KHA2 090150Z 24008KT 04/03 A3027 RMK A01 T00360030  RH  096%=      5-min Rain = 0
KHA2 090151Z 23008KT 04/03 A3027 RMK A01 T00350030  RH  096%=      5-min Rain = 0
KHA2 090152Z 23008KT 04/03 A3027 RMK A01 T00350029  RH  096%=      5-min Rain = 0
KHA2 090153Z 24008KT 04/03 A3028 RMK A01 T00350029  RH  096%=      5-min Rain = 0
KHA2 090154Z 24008KT 03/03 A3028 RMK A01 T00340028  RH  096%=      5-min Rain = 0
KHA2 090155Z 23007KT 03/03 A3028 RMK A01 T00340029  RH  096%=      5-min Rain = 0
KHA2 090156Z 23008KT 04/03 A3027 RMK A01 T00350029  RH  096%=      5-min Rain = 0
KHA2 090157Z 24008KT 04/03 A3027 RMK A01 T00350029  RH  096%=      5-min Rain = 0
KHA2 090158Z 24008KT 04/03 A3027 RMK A01 T00360031  RH  097%=      5-min Rain = 0
KHA2 090159Z 24008KT 04/03 A3027 RMK A01 T00360031  RH  097%=      5-min Rain = 0
KHA2 090200Z 24008KT 04/03 A3027 RMK A01 T00370032  RH  097%=      5-min Rain = 0
KHA2 090201Z 24009KT 04/03 A3027 RMK A01 T00380033  RH  097%=      5-min Rain = 0
KHA2 090202Z 24009KT 04/03 A3027 RMK A01 T00390034  RH  097%=      5-min Rain = 0
KHA2 090203Z 24009KT 04/03 A3027 RMK A01 T00390034  RH  097%=      5-min Rain = 0
KHA2 090204Z 24009KT 04/03 A3027 RMK A01 T00400034  RH  096%=      5-min Rain = 0
KHA2 090205Z 24008KT 04/03 A3027 RMK A01 T00400034  RH  096%=      5-min Rain = 0
KHA2 090206Z 24008KT 04/03 A3027 RMK A01 T00400034  RH  096%=      5-min Rain = 0
KHA2 090207Z 24009KT 04/03 A3028 RMK A01 T00390034  RH  096%=      5-min Rain = 0
KHA2 090208Z 24009KT 04/03 A3028 RMK A01 T00390034  RH  096%=      5-min Rain = 0
KHA2 090209Z 24009KT 04/03 A3028 RMK A01 T00390034  RH  096%=      5-min Rain = 0
KHA2 090210Z 24009KT 04/03 A3028 RMK A01 T00390034  RH  096%=      5-min Rain = 0
KHA2 090211Z 24009KT 04/03 A3028 RMK A01 T00390033  RH  096%=      5-min Rain = 0
KHA2 090212Z 24009KT 04/03 A3028 RMK A01 T00390033  RH  096%=      5-min Rain = 0
KHA2 090213Z 24009KT 04/03 A3028 RMK A01 T00390033  RH  096%=      5-min Rain = 0
KHA2 090214Z 24009KT 04/03 A3027 RMK A01 T00390033  RH  096%=      5-min Rain = 0
KHA2 090215Z 25009KT 04/03 A3027 RMK A01 T00380032  RH  096%=      5-min Rain = 0
KHA2 090216Z 25009KT 04/03 A3027 RMK A01 T00380032  RH  096%=      5-min Rain = 0
KHA2 090217Z 25009KT 04/03 A3027 RMK A01 T00380032  RH  096%=      5-min Rain = 0
KHA2 090218Z 24009KT 04/03 A3027 RMK A01 T00380032  RH  096%=      5-min Rain = 0
KHA2 090219Z 25009KT 04/03 A3027 RMK A01 T00380032  RH  096%=      5-min Rain = 0
KHA2 090220Z 24009KT 04/03 A3027 RMK A01 T00380032  RH  096%=      5-min Rain = 0
KHA2 090221Z 24010KT 04/03 A3027 RMK A01 T00380032  RH  096%=      5-min Rain = 0
KHA2 090222Z 24010KT 04/03 A3027 RMK A01 T00370031  RH  096%=      5-min Rain = 0
KHA2 090223Z 24010KT 04/03 A3027 RMK A01 T00370031  RH  096%=      5-min Rain = 0
KHA2 090224Z 24010KT 04/03 A3027 RMK A01 T00360030  RH  096%=      5-min Rain = 0
KHA2 090225Z 24010KT 04/03 A3027 RMK A01 T00360030  RH  096%=      5-min Rain = 0
KHA2 090226Z 24009KT 04/03 A3027 RMK A01 T00360029  RH  096%=      5-min Rain = 0
KHA2 090227Z 24009KT 04/03 A3027 RMK A01 T00350029  RH  096%=      5-min Rain = 0
KHA2 090228Z 24009KT 03/03 A3027 RMK A01 T00340028  RH  096%=      5-min Rain = 0
KHA2 090229Z 24009KT 03/03 A3027 RMK A01 T00340027  RH  096%=      5-min Rain = 0
KHA2 090230Z 24009KT 03/03 A3027 RMK A01 T00340027  RH  096%=      5-min Rain = 0
KHA2 090231Z 24009KT 03/03 A3027 RMK A01 T00330027  RH  096%=      5-min Rain = 0
KHA2 090232Z 24009KT 03/03 A3027 RMK A01 T00320026  RH  096%=      5-min Rain = 0
KHA2 090233Z 24009KT 03/03 A3027 RMK A01 T00320025  RH  096%=      5-min Rain = 0
KHA2 090234Z 24009KT 03/03 A3027 RMK A01 T00310025  RH  096%=      5-min Rain = 0
KHA2 090235Z 24009KT 03/02 A3027 RMK A01 T00300024  RH  096%=      5-min Rain = 0
KHA2 090236Z 24009KT 03/03 A3028 RMK A01 T00300025  RH  096%=      5-min Rain = 0
KHA2 090237Z 24009KT 03/02 A3028 RMK A01 T00300024  RH  096%=      5-min Rain = 0
KHA2 090238Z 24009KT 03/02 A3028 RMK A01 T00290023  RH  096%=      5-min Rain = 0
KHA2 090239Z 24009KT 03/02 A3028 RMK A01 T00280023  RH  096%=      5-min Rain = 0
KHA2 090240Z 24009KT 03/02 A3028 RMK A01 T00290023  RH  096%=      5-min Rain = 0
KHA2 090241Z 24009KT 03/02 A3028 RMK A01 T00290023  RH  096%=      5-min Rain = 0
KHA2 090242Z 24009KT 03/02 A3028 RMK A01 T00280023  RH  096%=      5-min Rain = 0
KHA2 090243Z 24009KT 03/02 A3028 RMK A01 T00280023  RH  096%=      5-min Rain = 0
KHA2 090244Z 24009KT 03/02 A3028 RMK A01 T00280023  RH  096%=      5-min Rain = 0
KHA2 090245Z 24009KT 03/02 A3028 RMK A01 T00280023  RH  097%=      5-min Rain = 0
KHA2 090246Z 24009KT 03/02 A3028 RMK A01 T00280023  RH  097%=      5-min Rain = 0
KHA2 090247Z 24009KT 03/02 A3028 RMK A01 T00280023  RH  097%=      5-min Rain = 0
KHA2 090248Z 24009KT 03/02 A3028 RMK A01 T00270022  RH  097%=      5-min Rain = 0
KHA2 090249Z 25009KT 03/02 A3028 RMK A01 T00270022  RH  097%=      5-min Rain = 0
KHA2 090250Z 25009KT 03/02 A3028 RMK A01 T00270022  RH  097%=      5-min Rain = 0
KHA2 090251Z 25009KT 03/02 A3028 RMK A01 T00270023  RH  097%=      5-min Rain = 0
KHA2 090252Z 25008KT 03/02 A3028 RMK A01 T00280024  RH  097%=      5-min Rain = 0
KHA2 090253Z 25008KT 03/02 A3028 RMK A01 T00280024  RH  097%=      5-min Rain = 0
KHA2 090254Z 25008KT 03/02 A3028 RMK A01 T00290024  RH  097%=      5-min Rain = 0
KHA2 090255Z 25008KT 03/02 A3028 RMK A01 T00290024  RH  097%=      5-min Rain = 0
KHA2 090256Z 25008KT 03/02 A3028 RMK A01 T00290024  RH  097%=      5-min Rain = 0
KHA2 090257Z 26008KT 03/02 A3028 RMK A01 T00280024  RH  097%=      5-min Rain = 0
KHA2 090258Z 25008KT 03/03 A3028 RMK A01 T00290025  RH  097%=      5-min Rain = 0
KHA2 090259Z 25008KT 03/03 A3028 RMK A01 T00310026  RH  097%=      5-min Rain = 0
KHA2 090300Z 26008KT 03/03 A3028 RMK A01 T00320027  RH  097%=      5-min Rain = 0
KHA2 090301Z 25009KT 03/03 A3028 RMK A01 T00320028  RH  097%=      5-min Rain = 0
KHA2 090302Z 25008KT 03/03 A3028 RMK A01 T00330028  RH  097%=      5-min Rain = 0
KHA2 090303Z 25008KT 03/03 A3028 RMK A01 T00330028  RH  097%=      5-min Rain = 0
KHA2 090304Z 25009KT 03/03 A3028 RMK A01 T00330028  RH  097%=      5-min Rain = 0
KHA2 090305Z 25008KT 03/03 A3028 RMK A01 T00340029  RH  097%=      5-min Rain = 0
KHA2 090306Z 25008KT 03/03 A3028 RMK A01 T00330028  RH  096%=      5-min Rain = 0
KHA2 090307Z 25007KT 03/03 A3028 RMK A01 T00330028  RH  096%=      5-min Rain = 0
KHA2 090308Z 25008KT 03/03 A3028 RMK A01 T00330027  RH  096%=      5-min Rain = 0
KHA2 090309Z 25008KT 03/03 A3028 RMK A01 T00330027  RH  096%=      5-min Rain = 0
KHA2 090310Z 25008KT 03/03 A3028 RMK A01 T00320026  RH  096%=      5-min Rain = 0
KHA2 090311Z 25007KT 03/03 A3028 RMK A01 T00310025  RH  096%=      5-min Rain = 0
KHA2 090312Z 25008KT 03/02 A3028 RMK A01 T00300024  RH  096%=      5-min Rain = 0
KHA2 090313Z 25008KT 03/02 A3028 RMK A01 T00300024  RH  096%=      5-min Rain = 0
KHA2 090314Z 25008KT 03/02 A3028 RMK A01 T00300024  RH  096%=      5-min Rain = 0
KHA2 090315Z 25008KT 03/02 A3028 RMK A01 T00300024  RH  096%=      5-min Rain = 0
KHA2 090316Z 25008KT 03/02 A3028 RMK A01 T00300024  RH  096%=      5-min Rain = 0
KHA2 090317Z 25009KT 03/02 A3028 RMK A01 T00300024  RH  096%=      5-min Rain = 0
KHA2 090318Z 25008KT 03/03 A3028 RMK A01 T00310025  RH  096%=      5-min Rain = 0
KHA2 090319Z 25009KT 03/03 A3028 RMK A01 T00310026  RH  096%=      5-min Rain = 0
KHA2 090320Z 25008KT 03/03 A3028 RMK A01 T00310026  RH  096%=      5-min Rain = 0
KHA2 090321Z 25009KT 03/03 A3028 RMK A01 T00320026  RH  096%=      5-min Rain = 0
KHA2 090322Z 25009KT 03/03 A3028 RMK A01 T00320027  RH  096%=      5-min Rain = 0
KHA2 090323Z 25008KT 03/03 A3028 RMK A01 T00320027  RH  096%=      5-min Rain = 0
KHA2 090324Z 25008KT 03/03 A3028 RMK A01 T00320026  RH  096%=      5-min Rain = 0
KHA2 090325Z 25008KT 03/03 A3028 RMK A01 T00320026  RH  096%=      5-min Rain = 0
KHA2 090326Z 25008KT 03/03 A3028 RMK A01 T00320026  RH  096%=      5-min Rain = 0
KHA2 090327Z 25008KT 03/03 A3028 RMK A01 T00320026  RH  096%=      5-min Rain = 0
KHA2 090328Z 25008KT 03/03 A3028 RMK A01 T00320026  RH  096%=      5-min Rain = 0
KHA2 090329Z 25009KT 03/03 A3028 RMK A01 T00320026  RH  096%=      5-min Rain = 0
KHA2 090330Z 25009KT 03/03 A3028 RMK A01 T00320026  RH  096%=      5-min Rain = 0
KHA2 090331Z 25008KT 03/03 A3028 RMK A01 T00320026  RH  096%=      5-min Rain = 0
KHA2 090332Z 25009KT 03/03 A3028 RMK A01 T00320026  RH  096%=      5-min Rain = 0
KHA2 090333Z 26009KT 03/03 A3028 RMK A01 T00330027  RH  096%=      5-min Rain = 0
KHA2 090334Z 26008KT 03/03 A3028 RMK A01 T00330027  RH  096%=      5-min Rain = 0
KHA2 090335Z 26009KT 03/03 A3028 RMK A01 T00330027  RH  096%=      5-min Rain = 0
KHA2 090336Z 26009KT 03/03 A3028 RMK A01 T00330027  RH  096%=      5-min Rain = 0
KHA2 090337Z 26009KT 03/03 A3028 RMK A01 T00330026  RH  095%=      5-min Rain = 0
KHA2 090338Z 26010KT 03/03 A3028 RMK A01 T00330027  RH  095%=      5-min Rain = 0
KHA2 090339Z 26010KT 03/03 A3028 RMK A01 T00340027  RH  095%=      5-min Rain = 0
KHA2 090340Z 26009KT 03/03 A3028 RMK A01 T00340027  RH  095%=      5-min Rain = 0
KHA2 090341Z 26009KT 03/03 A3029 RMK A01 T00340027  RH  095%=      5-min Rain = 0
KHA2 090342Z 26009KT 03/03 A3029 RMK A01 T00340027  RH  095%=      5-min Rain = 0
KHA2 090343Z 26009KT 04/03 A3029 RMK A01 T00350027  RH  095%=      5-min Rain = 0
KHA2 090344Z 26009KT 04/03 A3029 RMK A01 T00350027  RH  095%=      5-min Rain = 0
KHA2 090345Z 26009KT 04/03 A3029 RMK A01 T00350027  RH  095%=      5-min Rain = 0
KHA2 090346Z 26009KT 04/03 A3029 RMK A01 T00350027  RH  094%=      5-min Rain = 0
KHA2 090347Z 26010KT 04/03 A3029 RMK A01 T00350027  RH  095%=      5-min Rain = 0
KHA2 090348Z 26009KT 04/03 A3029 RMK A01 T00370029  RH  095%=      5-min Rain = 0
KHA2 090349Z 26010KT 04/03 A3029 RMK A01 T00370029  RH  094%=      5-min Rain = 0
KHA2 090350Z 26010KT 04/03 A3029 RMK A01 T00380029  RH  094%=      5-min Rain = 0
KHA2 090351Z 26010KT 04/03 A3029 RMK A01 T00380029  RH  094%=      5-min Rain = 0
KHA2 090352Z 25010KT 04/03 A3029 RMK A01 T00380029  RH  094%=      5-min Rain = 0
KHA2 090353Z 26010KT 04/03 A3029 RMK A01 T00380029  RH  094%=      5-min Rain = 0
KHA2 090354Z 26010KT 04/03 A3029 RMK A01 T00390029  RH  094%=      5-min Rain = 0
KHA2 090355Z 25010KT 04/03 A3029 RMK A01 T00380029  RH  093%=      5-min Rain = 0
KHA2 090356Z 26010KT 04/03 A3029 RMK A01 T00380028  RH  093%=      5-min Rain = 0
KHA2 090357Z 25010KT 04/03 A3029 RMK A01 T00390029  RH  093%=      5-min Rain = 0
KHA2 090358Z 26009KT 04/03 A3029 RMK A01 T00390028  RH  093%=      5-min Rain = 0
KHA2 090359Z 25009KT 04/03 A3029 RMK A01 T00380028  RH  093%=      5-min Rain = 0
KHA2 090400Z 25009KT 04/03 A3029 RMK A01 T00380027  RH  093%=      5-min Rain = 0
KHA2 090401Z 25009KT 04/03 A3029 RMK A01 T00370026  RH  093%=      5-min Rain = 0
KHA2 090402Z 25009KT 04/03 A3029 RMK A01 T00370026  RH  093%=      5-min Rain = 0
KHA2 090403Z 25009KT 04/03 A3029 RMK A01 T00370026  RH  093%=      5-min Rain = 0
KHA2 090404Z 25009KT 04/03 A3029 RMK A01 T00360026  RH  093%=      5-min Rain = 0
KHA2 090405Z 25009KT 04/03 A3029 RMK A01 T00360026  RH  093%=      5-min Rain = 0
KHA2 090406Z 25009KT 04/03 A3029 RMK A01 T00360026  RH  093%=      5-min Rain = 0
KHA2 090407Z 26010KT 04/03 A3029 RMK A01 T00350026  RH  093%=      5-min Rain = 0
KHA2 090408Z 26010KT 04/03 A3029 RMK A01 T00360026  RH  094%=      5-min Rain = 0
KHA2 090409Z 26010KT 04/03 A3029 RMK A01 T00360027  RH  094%=      5-min Rain = 0
KHA2 090410Z 26010KT 04/03 A3029 RMK A01 T00370027  RH  094%=      5-min Rain = 0
KHA2 090411Z 26010KT 04/03 A3029 RMK A01 T00370028  RH  094%=      5-min Rain = 0
KHA2 090412Z 26010KT 04/03 A3029 RMK A01 T00380028  RH  094%=      5-min Rain = 0
KHA2 090413Z 26010KT 04/03 A3029 RMK A01 T00380029  RH  094%=      5-min Rain = 0
KHA2 090414Z 26009KT 04/03 A3029 RMK A01 T00390029  RH  093%=      5-min Rain = 0
KHA2 090415Z 26009KT 04/03 A3029 RMK A01 T00390029  RH  093%=      5-min Rain = 0
KHA2 090416Z 26009KT 04/03 A3029 RMK A01 T00390029  RH  093%=      5-min Rain = 0
KHA2 090417Z 26009KT 04/03 A3029 RMK A01 T00390028  RH  093%=      5-min Rain = 0
KHA2 090418Z 26010KT 04/03 A3029 RMK A01 T00390028  RH  093%=      5-min Rain = 0
KHA2 090419Z 26010KT 04/03 A3029 RMK A01 T00390028  RH  093%=      5-min Rain = 0
KHA2 090420Z 26009KT 04/03 A3029 RMK A01 T00390029  RH  093%=      5-min Rain = 0
KHA2 090421Z 26009KT 04/03 A3029 RMK A01 T00390029  RH  093%=      5-min Rain = 0
KHA2 090422Z 25009KT 04/03 A3029 RMK A01 T00390029  RH  093%=      5-min Rain = 0
KHA2 090423Z 26010KT 04/03 A3029 RMK A01 T00390028  RH  093%=      5-min Rain = 0
KHA2 090424Z 25009KT 04/03 A3029 RMK A01 T00390029  RH  093%=      5-min Rain = 0
KHA2 090425Z 25009KT 04/03 A3029 RMK A01 T00400029  RH  093%=      5-min Rain = 0
KHA2 090426Z 25009KT 04/03 A3029 RMK A01 T00400029  RH  093%=      5-min Rain = 0
KHA2 090427Z 25009KT 04/03 A3029 RMK A01 T00390028  RH  093%=      5-min Rain = 0
KHA2 090428Z 25009KT 04/03 A3029 RMK A01 T00380027  RH  093%=      5-min Rain = 0
KHA2 090429Z 25009KT 04/03 A3029 RMK A01 T00380027  RH  093%=      5-min Rain = 0
KHA2 090430Z 25008KT 04/03 A3029 RMK A01 T00380027  RH  093%=      5-min Rain = 0
KHA2 090431Z 26008KT 04/03 A3029 RMK A01 T00370027  RH  093%=      5-min Rain = 0
KHA2 090432Z 25008KT 04/03 A3029 RMK A01 T00370026  RH  093%=      5-min Rain = 0
KHA2 090433Z 26008KT 04/03 A3029 RMK A01 T00370027  RH  093%=      5-min Rain = 0
KHA2 090434Z 26008KT 04/03 A3029 RMK A01 T00370027  RH  093%=      5-min Rain = 0
KHA2 090435Z 26008KT 04/03 A3028 RMK A01 T00370027  RH  093%=      5-min Rain = 0
KHA2 090436Z 26008KT 04/03 A3028 RMK A01 T00370028  RH  093%=      5-min Rain = 0
KHA2 090437Z 26009KT 04/03 A3028 RMK A01 T00390030  RH  094%=      5-min Rain = 0
KHA2 090438Z 26009KT 04/03 A3028 RMK A01 T00400030  RH  094%=      5-min Rain = 0
KHA2 090439Z 26009KT 04/03 A3028 RMK A01 T00400030  RH  093%=      5-min Rain = 0
KHA2 090440Z 26010KT 04/03 A3028 RMK A01 T00410031  RH  093%=      5-min Rain = 0
KHA2 090441Z 26010KT 04/03 A3028 RMK A01 T00420032  RH  093%=      5-min Rain = 0
KHA2 090442Z 26010KT 04/03 A3028 RMK A01 T00430033  RH  093%=      5-min Rain = 0
KHA2 090443Z 26009KT 04/03 A3028 RMK A01 T00440033  RH  093%=      5-min Rain = 0
KHA2 090444Z 26009KT 04/03 A3028 RMK A01 T00440032  RH  092%=      5-min Rain = 0
KHA2 090445Z 26009KT 04/03 A3028 RMK A01 T00440032  RH  092%=      5-min Rain = 0
KHA2 090446Z 26009KT 04/03 A3028 RMK A01 T00440032  RH  092%=      5-min Rain = 0
KHA2 090447Z 26009KT 04/03 A3028 RMK A01 T00440032  RH  092%=      5-min Rain = 0
KHA2 090448Z 26010KT 04/03 A3028 RMK A01 T00440032  RH  092%=      5-min Rain = 0
KHA2 090449Z 26009KT 05/03 A3028 RMK A01 T00450033  RH  092%=      5-min Rain = 0
KHA2 090450Z 26009KT 05/03 A3028 RMK A01 T00450032  RH  092%=      5-min Rain = 0
KHA2 090451Z 26009KT 04/03 A3028 RMK A01 T00440031  RH  091%=      5-min Rain = 0
KHA2 090452Z 26009KT 04/03 A3028 RMK A01 T00440031  RH  091%=      5-min Rain = 0
KHA2 090453Z 26009KT 04/03 A3028 RMK A01 T00430030  RH  092%=      5-min Rain = 0
KHA2 090454Z 26009KT 04/03 A3028 RMK A01 T00430030  RH  092%=      5-min Rain = 0
KHA2 090455Z 26009KT 04/03 A3028 RMK A01 T00420030  RH  092%=      5-min Rain = 0
KHA2 090456Z 26009KT 04/03 A3028 RMK A01 T00420030  RH  092%=      5-min Rain = 0
KHA2 090457Z 26009KT 04/03 A3028 RMK A01 T00420031  RH  092%=      5-min Rain = 0
KHA2 090458Z 26009KT 04/03 A3028 RMK A01 T00430031  RH  092%=      5-min Rain = 0
KHA2 090459Z 26009KT 04/03 A3028 RMK A01 T00430031  RH  092%=      5-min Rain = 0
KHA2 090500Z 26009KT 04/03 A3028 RMK A01 T00430031  RH  092%=      5-min Rain = 0
KHA2 090501Z 26008KT 04/03 A3028 RMK A01 T00430031  RH  092%=      5-min Rain = 0
KHA2 090502Z 26008KT 04/03 A3028 RMK A01 T00430031  RH  092%=      5-min Rain = 0
KHA2 090503Z 26008KT 04/03 A3028 RMK A01 T00420030  RH  092%=      5-min Rain = 0
KHA2 090504Z 26009KT 04/03 A3028 RMK A01 T00410029  RH  092%=      5-min Rain = 0
KHA2 090505Z 26009KT 04/03 A3028 RMK A01 T00410029  RH  092%=      5-min Rain = 0
KHA2 090506Z 26008KT 04/03 A3028 RMK A01 T00410029  RH  092%=      5-min Rain = 0
KHA2 090507Z 25009KT 04/03 A3028 RMK A01 T00400029  RH  092%=      5-min Rain = 0
KHA2 090508Z 26008KT 04/03 A3028 RMK A01 T00400029  RH  092%=      5-min Rain = 0
KHA2 090509Z 25008KT 04/03 A3028 RMK A01 T00390028  RH  092%=      5-min Rain = 0
KHA2 090510Z 26009KT 04/03 A3028 RMK A01 T00370026  RH  092%=      5-min Rain = 0
KHA2 090511Z 26008KT 04/03 A3028 RMK A01 T00360025  RH  092%=      5-min Rain = 0
KHA2 090512Z 25009KT 04/03 A3028 RMK A01 T00350025  RH  093%=      5-min Rain = 0
KHA2 090513Z 25008KT 04/02 A3028 RMK A01 T00350024  RH  093%=      5-min Rain = 0
KHA2 090514Z 26008KT 03/02 A3028 RMK A01 T00340024  RH  093%=      5-min Rain = 0
KHA2 090515Z 26008KT 03/02 A3028 RMK A01 T00340024  RH  093%=      5-min Rain = 0
KHA2 090516Z 26007KT 03/03 A3028 RMK A01 T00340025  RH  094%=      5-min Rain = 0
KHA2 090517Z 26007KT 03/03 A3028 RMK A01 T00340025  RH  094%=      5-min Rain = 0
KHA2 090518Z 26007KT 03/03 A3028 RMK A01 T00340025  RH  094%=      5-min Rain = 0
KHA2 090519Z 26007KT 04/03 A3028 RMK A01 T00350026  RH  094%=      5-min Rain = 0
KHA2 090520Z 26008KT 04/03 A3028 RMK A01 T00350025  RH  094%=      5-min Rain = 0
KHA2 090521Z 26008KT 03/03 A3028 RMK A01 T00340025  RH  093%=      5-min Rain = 0
KHA2 090522Z 26008KT 04/03 A3028 RMK A01 T00350025  RH  094%=      5-min Rain = 0
KHA2 090523Z 26008KT 04/03 A3028 RMK A01 T00350025  RH  094%=      5-min Rain = 0
KHA2 090524Z 26008KT 04/03 A3028 RMK A01 T00350025  RH  093%=      5-min Rain = 0
KHA2 090525Z 26008KT 04/03 A3028 RMK A01 T00350026  RH  093%=      5-min Rain = 0
KHA2 090526Z 26008KT 04/03 A3028 RMK A01 T00350025  RH  093%=      5-min Rain = 0
KHA2 090527Z 26008KT 04/03 A3028 RMK A01 T00360026  RH  093%=      5-min Rain = 0
KHA2 090528Z 26008KT 04/03 A3028 RMK A01 T00350025  RH  093%=      5-min Rain = 0
KHA2 090529Z 26008KT 04/02 A3028 RMK A01 T00350024  RH  093%=      5-min Rain = 0
KHA2 090530Z 26008KT 04/02 A3028 RMK A01 T00350024  RH  093%=      5-min Rain = 0
KHA2 090531Z 26008KT 04/03 A3028 RMK A01 T00350025  RH  093%=      5-min Rain = 0
KHA2 090532Z 26008KT 04/03 A3027 RMK A01 T00350025  RH  093%=      5-min Rain = 0
KHA2 090533Z 26008KT 04/03 A3027 RMK A01 T00350025  RH  093%=      5-min Rain = 0
KHA2 090534Z 26008KT 04/03 A3027 RMK A01 T00350025  RH  093%=      5-min Rain = 0
KHA2 090535Z 27008KT 04/02 A3027 RMK A01 T00350024  RH  093%=      5-min Rain = 0
KHA2 090536Z 27007KT 04/02 A3027 RMK A01 T00350024  RH  093%=      5-min Rain = 0
KHA2 090537Z 27007KT 04/02 A3027 RMK A01 T00350024  RH  093%=      5-min Rain = 0
KHA2 090538Z 27007KT 04/02 A3027 RMK A01 T00350024  RH  093%=      5-min Rain = 0
KHA2 090539Z 27007KT 04/02 A3027 RMK A01 T00350024  RH  093%=      5-min Rain = 0
KHA2 090540Z 27007KT 04/03 A3027 RMK A01 T00360025  RH  093%=      5-min Rain = 0
KHA2 090541Z 27007KT 04/03 A3027 RMK A01 T00360025  RH  093%=      5-min Rain = 0
KHA2 090542Z 27007KT 04/03 A3027 RMK A01 T00360025  RH  093%=      5-min Rain = 0
KHA2 090543Z 27008KT 04/03 A3027 RMK A01 T00360026  RH  093%=      5-min Rain = 0
KHA2 090544Z 27008KT 04/03 A3027 RMK A01 T00370026  RH  093%=      5-min Rain = 0
KHA2 090545Z 27009KT 04/03 A3027 RMK A01 T00370027  RH  093%=      5-min Rain = 0
KHA2 090546Z 27008KT 04/03 A3027 RMK A01 T00390028  RH  093%=      5-min Rain = 0
KHA2 090547Z 27008KT 04/03 A3027 RMK A01 T00400029  RH  093%=      5-min Rain = 0
KHA2 090548Z 28007KT 04/03 A3027 RMK A01 T00400029  RH  092%=      5-min Rain = 0
KHA2 090549Z 28007KT 04/03 A3027 RMK A01 T00400029  RH  092%=      5-min Rain = 0
KHA2 090550Z 28007KT 04/03 A3027 RMK A01 T00400028  RH  092%=      5-min Rain = 0
KHA2 090551Z 28007KT 04/03 A3027 RMK A01 T00410028  RH  092%=      5-min Rain = 0
KHA2 090552Z 28008KT 04/03 A3027 RMK A01 T00410029  RH  092%=      5-min Rain = 0
KHA2 090553Z 28008KT 04/03 A3027 RMK A01 T00410030  RH  092%=      5-min Rain = 0
KHA2 090554Z 27008KT 04/03 A3027 RMK A01 T00430032  RH  092%=      5-min Rain = 0
KHA2 090555Z 27007KT 04/03 A3027 RMK A01 T00440033  RH  092%=      5-min Rain = 0
KHA2 090556Z 27008KT 05/03 A3027 RMK A01 T00460034  RH  092%=      5-min Rain = 0
KHA2 090557Z 27007KT 05/03 A3027 RMK A01 T00470034  RH  092%=      5-min Rain = 0
KHA2 090558Z 27006KT 05/03 A3027 RMK A01 T00470033  RH  091%=      5-min Rain = 0
KHA2 090559Z 27007KT 05/03 A3027 RMK A01 T00450031  RH  091%=      5-min Rain = 0

Page generated in 0.0712 seconds.